Time,TemperatureF,DewpointF,PressureIn,WindDirection,WindDirectionDegrees,WindSpeedMPH,WindSpeedGustMPH,Humidity,HourlyPrecipIn,Conditions,Clouds,dailyrainin,SoftwareType,DateUTC
2013-01-02 00:04:00,21.6,7.5,30.41,SW,229,3.0,3.0,54,0.00,,,0.00,Wunderground v.1.15,2013-01-02 07:04:00,
2013-01-02 00:05:00,21.6,7.5,30.41,WSW,240,1.0,3.0,54,0.00,,,0.00,Wunderground v.1.15,2013-01-02 07:05:00,
2013-01-02 00:08:00,21.6,7.5,30.41,WSW,243,1.0,3.0,54,0.00,,,0.00,Wunderground v.1.15,2013-01-02 07:08:00,
2013-01-02 00:13:00,21.4,6.9,30.41,WSW,245,1.0,3.0,53,0.00,,,0.00,Wunderground v.1.15,2013-01-02 07:13:00,
2013-01-02 00:17:00,21.3,6.8,30.42,WSW,252,3.0,3.0,53,0.00,,,0.00,Wunderground v.1.15,2013-01-02 07:17:00,
2013-01-02 00:19:00,21.4,6.9,30.41,SSW,203,1.0,3.0,53,0.00,,,0.00,Wunderground v.1.15,2013-01-02 07:19:00,
2013-01-02 00:22:00,21.5,7.0,30.41,SW,231,3.0,3.0,53,0.00,,,0.00,Wunderground v.1.15,2013-01-02 07:22:00,
2013-01-02 00:26:00,21.6,6.7,30.41,SW,219,3.0,4.0,52,0.00,,,0.00,Wunderground v.1.15,2013-01-02 07:26:00,
2013-01-02 00:28:00,21.7,6.3,30.41,SW,218,3.0,4.0,51,0.00,,,0.00,Wunderground v.1.15,2013-01-02 07:28:00,
2013-01-02 00:32:00,21.6,7.1,30.41,WSW,255,4.0,4.0,53,0.00,,,0.00,Wunderground v.1.15,2013-01-02 07:32:00,
2013-01-02 00:33:00,21.6,6.7,30.41,West,265,5.0,5.0,52,0.00,,,0.00,Wunderground v.1.15,2013-01-02 07:33:00,
2013-01-02 00:34:00,21.6,6.7,30.41,West,264,4.0,5.0,52,0.00,,,0.00,Wunderground v.1.15,2013-01-02 07:34:00,
2013-01-02 00:39:00,22.0,7.0,30.41,SSW,195,4.0,5.0,52,0.00,,,0.00,Wunderground v.1.15,2013-01-02 07:39:00,
2013-01-02 00:40:00,22.0,7.0,30.41,WSW,248,4.0,4.0,52,0.00,,,0.00,Wunderground v.1.15,2013-01-02 07:40:00,
2013-01-02 00:44:00,22.0,7.0,30.41,West,278,0.0,4.0,52,0.00,,,0.00,Wunderground v.1.15,2013-01-02 07:44:00,
2013-01-02 00:45:00,21.9,6.5,30.41,West,272,0.0,4.0,51,0.00,,,0.00,Wunderground v.1.15,2013-01-02 07:45:00,
2013-01-02 00:47:00,21.9,7.4,30.41,WSW,250,3.0,4.0,53,0.00,,,0.00,Wunderground v.1.15,2013-01-02 07:47:00,
2013-01-02 00:53:00,22.3,6.4,30.41,SW,222,3.0,3.0,50,0.00,,,0.00,Wunderground v.1.15,2013-01-02 07:53:00,
2013-01-02 00:54:00,22.4,6.5,30.41,SW,235,3.0,3.0,50,0.00,,,0.00,Wunderground v.1.15,2013-01-02 07:54:00,
2013-01-02 00:57:00,22.7,6.4,30.41,WSW,255,4.0,4.0,49,0.00,,,0.00,Wunderground v.1.15,2013-01-02 07:57:00,
2013-01-02 00:58:00,22.7,6.4,30.41,WSW,249,5.0,5.0,49,0.00,,,0.00,Wunderground v.1.15,2013-01-02 07:58:00,
2013-01-02 01:00:00,22.8,6.5,30.41,WSW,256,5.0,5.0,49,0.00,,,0.00,Wunderground v.1.15,2013-01-02 08:00:00,
2013-01-02 01:05:00,22.8,6.9,30.41,WSW,257,4.0,5.0,50,0.00,,,0.00,Wunderground v.1.15,2013-01-02 08:05:00,
2013-01-02 01:08:00,22.5,7.5,30.41,South,170,0.0,5.0,52,0.00,,,0.00,Wunderground v.1.15,2013-01-02 08:08:00,
2013-01-02 01:10:00,22.1,7.6,30.41,SW,215,1.0,3.0,53,0.00,,,0.00,Wunderground v.1.15,2013-01-02 08:10:00,
2013-01-02 01:11:00,22.0,7.5,30.41,SW,226,2.0,3.0,53,0.00,,,0.00,Wunderground v.1.15,2013-01-02 08:11:00,
2013-01-02 01:16:00,21.6,7.1,30.41,West,277,1.0,3.0,53,0.00,,,0.00,Wunderground v.1.15,2013-01-02 08:16:00,
2013-01-02 01:17:00,21.6,7.1,30.41,West,277,0.0,3.0,53,0.00,,,0.00,Wunderground v.1.15,2013-01-02 08:17:00,
2013-01-02 01:19:00,21.6,7.1,30.41,West,276,0.0,3.0,53,0.00,,,0.00,Wunderground v.1.15,2013-01-02 08:19:00,
2013-01-02 01:22:00,21.7,6.8,30.42,West,277,1.0,1.0,52,0.00,,,0.00,Wunderground v.1.15,2013-01-02 08:22:00,
2013-01-02 01:24:00,21.9,6.9,30.42,West,262,1.0,2.0,52,0.00,,,0.00,Wunderground v.1.15,2013-01-02 08:24:00,
2013-01-02 01:26:00,22.0,7.0,30.42,SSW,204,2.0,2.0,52,0.00,,,0.00,Wunderground v.1.15,2013-01-02 08:26:00,
2013-01-02 01:27:00,22.0,7.0,30.42,SSW,197,2.0,2.0,52,0.00,,,0.00,Wunderground v.1.15,2013-01-02 08:27:00,
2013-01-02 01:31:00,21.8,6.8,30.42,WSW,246,2.0,2.0,52,0.00,,,0.00,Wunderground v.1.15,2013-01-02 08:31:00,
2013-01-02 01:33:00,21.8,6.8,30.42,WSW,245,3.0,3.0,52,0.00,,,0.00,Wunderground v.1.15,2013-01-02 08:33:00,
2013-01-02 01:38:00,21.4,6.9,30.42,WSW,243,3.0,6.0,53,0.00,,,0.00,Wunderground v.1.15,2013-01-02 08:38:00,
2013-01-02 01:39:00,21.3,6.4,30.42,South,186,2.0,6.0,52,0.00,,,0.00,Wunderground v.1.15,2013-01-02 08:39:00,
2013-01-02 01:43:00,21.2,6.3,30.42,SW,224,3.0,4.0,52,0.00,,,0.00,Wunderground v.1.15,2013-01-02 08:43:00,
2013-01-02 01:44:00,21.2,6.7,30.42,SW,228,3.0,4.0,53,0.00,,,0.00,Wunderground v.1.15,2013-01-02 08:44:00,
2013-01-02 01:49:00,20.6,6.2,30.42,WSW,240,5.0,6.0,53,0.00,,,0.00,Wunderground v.1.15,2013-01-02 08:49:00,
2013-01-02 01:50:00,20.6,6.2,30.42,WSW,253,6.0,6.0,53,0.00,,,0.00,Wunderground v.1.15,2013-01-02 08:50:00,
2013-01-02 01:51:00,20.5,6.1,30.42,WSW,253,5.0,6.0,53,0.00,,,0.00,Wunderground v.1.15,2013-01-02 08:51:00,
2013-01-02 01:56:00,20.6,5.7,30.43,WSW,245,1.0,6.0,52,0.00,,,0.00,Wunderground v.1.15,2013-01-02 08:56:00,
2013-01-02 01:57:00,20.4,6.0,30.43,NNE,33,0.0,6.0,53,0.00,,,0.00,Wunderground v.1.15,2013-01-02 08:57:00,
2013-01-02 01:59:00,20.1,5.7,30.43,West,266,1.0,6.0,53,0.00,,,0.00,Wunderground v.1.15,2013-01-02 08:59:00,
2013-01-02 02:01:00,19.8,5.4,30.43,SW,235,2.0,4.0,53,0.00,,,0.00,Wunderground v.1.15,2013-01-02 09:01:00,
2013-01-02 02:02:00,19.9,5.5,30.43,SW,226,2.0,4.0,53,0.00,,,0.00,Wunderground v.1.15,2013-01-02 09:02:00,
2013-01-02 02:04:00,19.9,5.5,30.43,West,262,3.0,4.0,53,0.00,,,0.00,Wunderground v.1.15,2013-01-02 09:04:00,
2013-01-02 02:06:00,19.7,4.9,30.43,West,262,4.0,5.0,52,0.00,,,0.00,Wunderground v.1.15,2013-01-02 09:06:00,
2013-01-02 02:07:00,19.7,4.9,30.43,WSW,250,5.0,5.0,52,0.00,,,0.00,Wunderground v.1.15,2013-01-02 09:07:00,
2013-01-02 02:09:00,19.9,4.7,30.43,WSW,250,4.0,5.0,51,0.00,,,0.00,Wunderground v.1.15,2013-01-02 09:09:00,
2013-01-02 02:11:00,20.0,4.3,30.43,SW,231,3.0,4.0,50,0.00,,,0.00,Wunderground v.1.15,2013-01-02 09:11:00,
2013-01-02 02:12:00,20.0,4.3,30.43,WSW,256,3.0,4.0,50,0.00,,,0.00,Wunderground v.1.15,2013-01-02 09:12:00,
2013-01-02 02:14:00,20.0,4.3,30.43,WSW,240,5.0,6.0,50,0.00,,,0.00,Wunderground v.1.15,2013-01-02 09:14:00,
2013-01-02 02:16:00,20.2,4.1,30.43,WSW,257,3.0,6.0,49,0.00,,,0.00,Wunderground v.1.15,2013-01-02 09:16:00,
2013-01-02 02:17:00,20.4,4.2,30.43,West,271,5.0,6.0,49,0.00,,,0.00,Wunderground v.1.15,2013-01-02 09:17:00,
2013-01-02 02:19:00,20.3,4.2,30.43,WNW,290,4.0,7.0,49,0.00,,,0.00,Wunderground v.1.15,2013-01-02 09:19:00,
2013-01-02 02:21:00,20.6,4.0,30.43,WSW,255,7.0,9.0,48,0.00,,,0.00,Wunderground v.1.15,2013-01-02 09:21:00,
2013-01-02 02:22:00,20.6,4.0,30.43,West,269,6.0,9.0,48,0.00,,,0.00,Wunderground v.1.15,2013-01-02 09:22:00,
2013-01-02 02:24:00,21.1,4.0,30.43,West,278,8.0,9.0,47,0.00,,,0.00,Wunderground v.1.15,2013-01-02 09:24:00,
2013-01-02 02:26:00,21.7,4.1,30.43,WNW,287,6.0,9.0,46,0.00,,,0.00,Wunderground v.1.15,2013-01-02 09:26:00,
2013-01-02 02:27:00,21.8,4.2,30.43,West,263,5.0,9.0,46,0.00,,,0.00,Wunderground v.1.15,2013-01-02 09:27:00,
2013-01-02 02:29:00,22.0,3.9,30.43,West,271,7.0,9.0,45,0.00,,,0.00,Wunderground v.1.15,2013-01-02 09:29:00,
2013-01-02 02:31:00,21.8,3.7,30.43,West,263,7.0,8.0,45,0.00,,,0.00,Wunderground v.1.15,2013-01-02 09:31:00,
2013-01-02 02:32:00,21.7,3.6,30.43,West,267,6.0,8.0,45,0.00,,,0.00,Wunderground v.1.15,2013-01-02 09:32:00,
2013-01-02 02:34:00,21.7,3.6,30.43,West,269,5.0,8.0,45,0.00,,,0.00,Wunderground v.1.15,2013-01-02 09:34:00,
2013-01-02 02:37:00,22.3,3.7,30.43,West,263,5.0,8.0,44,0.00,,,0.00,Wunderground v.1.15,2013-01-02 09:37:00,
2013-01-02 02:39:00,22.4,3.7,30.43,West,259,5.0,8.0,44,0.00,,,0.00,Wunderground v.1.15,2013-01-02 09:39:00,
2013-01-02 02:42:00,22.8,3.6,30.43,West,259,6.0,6.0,43,0.00,,,0.00,Wunderground v.1.15,2013-01-02 09:42:00,
2013-01-02 02:44:00,22.7,3.5,30.43,WSW,253,4.0,6.0,43,0.00,,,0.00,Wunderground v.1.15,2013-01-02 09:44:00,
2013-01-02 02:47:00,22.8,3.6,30.43,WSW,250,3.0,6.0,43,0.00,,,0.00,Wunderground v.1.15,2013-01-02 09:47:00,
2013-01-02 02:50:00,22.8,3.6,30.43,WSW,240,2.0,4.0,43,0.00,,,0.00,Wunderground v.1.15,2013-01-02 09:50:00,
2013-01-02 02:52:00,22.5,3.8,30.43,ESE,108,0.0,4.0,44,0.00,,,0.00,Wunderground v.1.15,2013-01-02 09:52:00,
2013-01-02 02:55:00,22.1,3.5,30.43,WSW,257,2.0,4.0,44,0.00,,,0.00,Wunderground v.1.15,2013-01-02 09:55:00,
2013-01-02 02:57:00,21.9,3.8,30.43,West,271,3.0,4.0,45,0.00,,,0.00,Wunderground v.1.15,2013-01-02 09:57:00,
2013-01-02 02:58:00,21.9,3.8,30.43,West,267,3.0,4.0,45,0.00,,,0.00,Wunderground v.1.15,2013-01-02 09:58:00,
2013-01-02 03:00:00,21.5,3.9,30.43,West,273,0.0,2.0,46,0.00,,,0.00,Wunderground v.1.15,2013-01-02 10:00:00,
2013-01-02 03:02:00,21.3,3.7,30.43,SSW,198,2.0,3.0,46,0.00,,,0.00,Wunderground v.1.15,2013-01-02 10:02:00,
2013-01-02 03:03:00,21.3,3.7,30.43,SSW,198,2.0,3.0,46,0.00,,,0.00,Wunderground v.1.15,2013-01-02 10:03:00,
2013-01-02 03:05:00,21.3,3.7,30.43,WSW,250,2.0,3.0,46,0.00,,,0.00,Wunderground v.1.15,2013-01-02 10:05:00,
2013-01-02 03:08:00,21.3,3.7,30.43,WSW,243,2.0,3.0,46,0.00,,,0.00,Wunderground v.1.15,2013-01-02 10:08:00,
2013-01-02 03:10:00,21.1,4.0,30.42,WSW,257,5.0,6.0,47,0.00,,,0.00,Wunderground v.1.15,2013-01-02 10:10:00,
2013-01-02 03:13:00,21.1,3.5,30.42,WSW,257,4.0,6.0,46,0.00,,,0.00,Wunderground v.1.15,2013-01-02 10:13:00,
2013-01-02 03:16:00,21.6,4.0,30.42,WSW,257,5.0,6.0,46,0.00,,,0.00,Wunderground v.1.15,2013-01-02 10:16:00,
2013-01-02 03:18:00,21.9,3.3,30.42,SW,221,4.0,6.0,44,0.00,,,0.00,Wunderground v.1.15,2013-01-02 10:18:00,
2013-01-02 03:21:00,22.2,3.6,30.42,WSW,252,5.0,6.0,44,0.00,,,0.00,Wunderground v.1.15,2013-01-02 10:21:00,
2013-01-02 03:23:00,22.3,4.1,30.42,West,264,5.0,6.0,45,0.00,,,0.00,Wunderground v.1.15,2013-01-02 10:23:00,
2013-01-02 03:26:00,22.2,4.1,30.42,WSW,243,4.0,6.0,45,0.00,,,0.00,Wunderground v.1.15,2013-01-02 10:26:00,
2013-01-02 03:28:00,22.3,4.1,30.42,WSW,246,4.0,6.0,45,0.00,,,0.00,Wunderground v.1.15,2013-01-02 10:28:00,
2013-01-02 03:31:00,22.9,3.7,30.42,West,278,3.0,4.0,43,0.00,,,0.00,Wunderground v.1.15,2013-01-02 10:31:00,
2013-01-02 03:33:00,23.3,4.1,30.42,West,260,5.0,5.0,43,0.00,,,0.00,Wunderground v.1.15,2013-01-02 10:33:00,
2013-01-02 03:36:00,23.8,4.0,30.42,WSW,242,2.0,5.0,42,0.00,,,0.00,Wunderground v.1.15,2013-01-02 10:36:00,
2013-01-02 03:39:00,24.3,4.5,30.41,East,101,1.0,5.0,42,0.00,,,0.00,Wunderground v.1.15,2013-01-02 10:39:00,
2013-01-02 03:41:00,24.1,4.3,30.41,SW,221,1.0,3.0,42,0.00,,,0.00,Wunderground v.1.15,2013-01-02 10:41:00,
2013-01-02 03:44:00,23.9,4.6,30.41,West,259,1.0,3.0,43,0.00,,,0.00,Wunderground v.1.15,2013-01-02 10:44:00,
2013-01-02 03:46:00,23.5,5.2,30.41,WNW,301,3.0,4.0,45,0.00,,,0.00,Wunderground v.1.15,2013-01-02 10:46:00,
2013-01-02 03:49:00,23.2,4.5,30.41,West,269,2.0,4.0,44,0.00,,,0.00,Wunderground v.1.15,2013-01-02 10:49:00,
2013-01-02 03:51:00,23.9,4.6,30.41,West,270,4.0,5.0,43,0.00,,,0.00,Wunderground v.1.15,2013-01-02 10:51:00,
2013-01-02 03:54:00,24.0,4.7,30.41,West,278,2.0,5.0,43,0.00,,,0.00,Wunderground v.1.15,2013-01-02 10:54:00,
2013-01-02 03:57:00,24.4,4.6,30.41,West,267,3.0,5.0,42,0.00,,,0.00,Wunderground v.1.15,2013-01-02 10:57:00,
2013-01-02 03:59:00,24.9,5.0,30.41,West,279,4.0,5.0,42,0.00,,,0.00,Wunderground v.1.15,2013-01-02 10:59:00,
2013-01-02 04:02:00,25.4,4.4,30.41,West,260,4.0,4.0,40,0.00,,,0.00,Wunderground v.1.15,2013-01-02 11:02:00,
2013-01-02 04:04:00,25.8,4.2,30.41,WNW,284,2.0,7.0,39,0.00,,,0.00,Wunderground v.1.15,2013-01-02 11:04:00,
2013-01-02 04:05:00,26.1,4.5,30.41,West,281,3.0,7.0,39,0.00,,,0.00,Wunderground v.1.15,2013-01-02 11:05:00,
2013-01-02 04:07:00,26.4,4.2,30.41,WNW,293,2.0,7.0,38,0.00,,,0.00,Wunderground v.1.15,2013-01-02 11:07:00,
2013-01-02 04:09:00,26.1,4.5,30.41,WSW,257,5.0,7.0,39,0.00,,,0.00,Wunderground v.1.15,2013-01-02 11:09:00,
2013-01-02 04:10:00,26.0,4.4,30.41,WSW,257,5.0,6.0,39,0.00,,,0.00,Wunderground v.1.15,2013-01-02 11:10:00,
2013-01-02 04:12:00,25.7,4.1,30.41,West,276,3.0,6.0,39,0.00,,,0.00,Wunderground v.1.15,2013-01-02 11:12:00,
2013-01-02 04:14:00,25.6,4.0,30.41,WNW,285,3.0,6.0,39,0.00,,,0.00,Wunderground v.1.15,2013-01-02 11:14:00,
2013-01-02 04:15:00,25.6,4.0,30.41,WNW,283,4.0,6.0,39,0.00,,,0.00,Wunderground v.1.15,2013-01-02 11:15:00,
2013-01-02 04:17:00,25.5,3.9,30.41,WSW,245,5.0,6.0,39,0.00,,,0.00,Wunderground v.1.15,2013-01-02 11:17:00,
2013-01-02 04:20:00,24.9,3.9,30.41,West,262,6.0,6.0,40,0.00,,,0.00,Wunderground v.1.15,2013-01-02 11:20:00,
2013-01-02 04:22:00,24.3,3.9,30.41,West,262,6.0,7.0,41,0.00,,,0.00,Wunderground v.1.15,2013-01-02 11:22:00,
2013-01-02 04:25:00,23.7,3.9,30.41,West,259,7.0,7.0,42,0.00,,,0.00,Wunderground v.1.15,2013-01-02 11:25:00,
2013-01-02 04:26:00,23.4,3.6,30.41,West,260,6.0,7.0,42,0.00,,,0.00,Wunderground v.1.15,2013-01-02 11:26:00,
2013-01-02 04:28:00,23.0,3.8,30.41,WSW,250,6.0,7.0,43,0.00,,,0.00,Wunderground v.1.15,2013-01-02 11:28:00,
2013-01-02 04:30:00,22.7,3.5,30.41,West,262,5.0,6.0,43,0.00,,,0.00,Wunderground v.1.15,2013-01-02 11:30:00,
2013-01-02 04:31:00,22.5,3.8,30.41,West,262,6.0,7.0,44,0.00,,,0.00,Wunderground v.1.15,2013-01-02 11:31:00,
2013-01-02 04:33:00,22.1,3.5,30.41,West,270,5.0,7.0,44,0.00,,,0.00,Wunderground v.1.15,2013-01-02 11:33:00,
2013-01-02 04:35:00,21.4,3.3,30.41,WSW,247,3.0,7.0,45,0.00,,,0.00,Wunderground v.1.15,2013-01-02 11:35:00,
2013-01-02 04:36:00,21.1,3.5,30.41,SSW,208,2.0,7.0,46,0.00,,,0.00,Wunderground v.1.15,2013-01-02 11:36:00,
2013-01-02 04:38:00,20.8,3.7,30.41,South,180,3.0,7.0,47,0.00,,,0.00,Wunderground v.1.15,2013-01-02 11:38:00,
2013-01-02 04:40:00,20.7,3.6,30.41,SW,215,3.0,4.0,47,0.00,,,0.00,Wunderground v.1.15,2013-01-02 11:40:00,
2013-01-02 04:41:00,20.7,3.6,30.41,SW,229,3.0,4.0,47,0.00,,,0.00,Wunderground v.1.15,2013-01-02 11:41:00,
2013-01-02 04:43:00,20.6,3.5,30.41,WNW,293,1.0,4.0,47,0.00,,,0.00,Wunderground v.1.15,2013-01-02 11:43:00,
2013-01-02 04:45:00,20.1,3.1,30.41,West,270,4.0,5.0,47,0.00,,,0.00,Wunderground v.1.15,2013-01-02 11:45:00,
2013-01-02 04:46:00,20.1,3.1,30.41,West,260,7.0,7.0,47,0.00,,,0.00,Wunderground v.1.15,2013-01-02 11:46:00,
2013-01-02 04:48:00,20.0,3.0,30.41,WSW,254,6.0,7.0,47,0.00,,,0.00,Wunderground v.1.15,2013-01-02 11:48:00,
2013-01-02 04:50:00,20.0,3.0,30.42,West,271,6.0,6.0,47,0.00,,,0.00,Wunderground v.1.15,2013-01-02 11:50:00,
2013-01-02 04:52:00,20.2,3.2,30.41,West,281,5.0,7.0,47,0.00,,,0.00,Wunderground v.1.15,2013-01-02 11:52:00,
2013-01-02 04:53:00,20.6,3.1,30.41,West,262,6.0,7.0,46,0.00,,,0.00,Wunderground v.1.15,2013-01-02 11:53:00,
2013-01-02 04:55:00,20.4,2.9,30.42,WSW,257,7.0,8.0,46,0.00,,,0.00,Wunderground v.1.15,2013-01-02 11:55:00,
2013-01-02 04:57:00,20.0,3.0,30.41,WSW,238,8.0,8.0,47,0.00,,,0.00,Wunderground v.1.15,2013-01-02 11:57:00,
2013-01-02 04:58:00,19.9,2.9,30.41,WSW,256,7.0,8.0,47,0.00,,,0.00,Wunderground v.1.15,2013-01-02 11:58:00,
2013-01-02 05:00:00,19.8,3.2,30.41,West,260,8.0,9.0,48,0.00,,,0.00,Wunderground v.1.15,2013-01-02 12:00:00,
2013-01-02 05:01:00,19.8,3.2,30.41,WSW,255,8.0,9.0,48,0.00,,,0.00,Wunderground v.1.15,2013-01-02 12:01:00,
2013-01-02 05:02:00,19.5,3.0,30.41,WSW,255,7.0,9.0,48,0.00,,,0.00,Wunderground v.1.15,2013-01-02 12:02:00,
2013-01-02 05:03:00,19.4,2.9,30.41,West,260,6.0,9.0,48,0.00,,,0.00,Wunderground v.1.15,2013-01-02 12:03:00,
2013-01-02 05:05:00,18.9,2.9,30.42,WSW,249,4.0,9.0,49,0.00,,,0.00,Wunderground v.1.15,2013-01-02 12:05:00,
2013-01-02 05:06:00,18.9,2.9,30.42,WSW,253,3.0,9.0,49,0.00,,,0.00,Wunderground v.1.15,2013-01-02 12:06:00,
2013-01-02 05:07:00,18.7,2.7,30.41,WSW,243,4.0,9.0,49,0.00,,,0.00,Wunderground v.1.15,2013-01-02 12:07:00,
2013-01-02 05:08:00,18.7,2.7,30.41,SSW,207,2.0,9.0,49,0.00,,,0.00,Wunderground v.1.15,2013-01-02 12:08:00,
2013-01-02 05:11:00,18.8,2.8,30.42,WSW,252,7.0,7.0,49,0.00,,,0.00,Wunderground v.1.15,2013-01-02 12:11:00,
2013-01-02 05:12:00,18.7,2.7,30.41,WSW,252,7.0,8.0,49,0.00,,,0.00,Wunderground v.1.15,2013-01-02 12:12:00,
2013-01-02 05:13:00,18.6,2.6,30.42,WSW,257,7.0,8.0,49,0.00,,,0.00,Wunderground v.1.15,2013-01-02 12:13:00,
2013-01-02 05:16:00,18.6,3.0,30.42,WSW,257,6.0,8.0,50,0.00,,,0.00,Wunderground v.1.15,2013-01-02 12:16:00,
2013-01-02 05:18:00,18.6,3.0,30.42,West,260,4.0,8.0,50,0.00,,,0.00,Wunderground v.1.15,2013-01-02 12:18:00,
2013-01-02 05:21:00,18.6,3.0,30.42,WSW,253,1.0,7.0,50,0.00,,,0.00,Wunderground v.1.15,2013-01-02 12:21:00,
2013-01-02 05:23:00,18.8,3.2,30.42,West,259,4.0,7.0,50,0.00,,,0.00,Wunderground v.1.15,2013-01-02 12:23:00,
2013-01-02 05:26:00,18.7,2.7,30.42,SW,233,0.0,7.0,49,0.00,,,0.00,Wunderground v.1.15,2013-01-02 12:26:00,
2013-01-02 05:28:00,18.7,2.7,30.42,West,260,3.0,7.0,49,0.00,,,0.00,Wunderground v.1.15,2013-01-02 12:28:00,
2013-01-02 05:31:00,18.6,2.6,30.42,SW,224,5.0,6.0,49,0.00,,,0.00,Wunderground v.1.15,2013-01-02 12:31:00,
2013-01-02 05:33:00,18.6,2.6,30.42,West,259,4.0,6.0,49,0.00,,,0.00,Wunderground v.1.15,2013-01-02 12:33:00,
2013-01-02 05:36:00,18.4,2.4,30.43,WSW,255,2.0,6.0,49,0.00,,,0.00,Wunderground v.1.15,2013-01-02 12:36:00,
2013-01-02 05:38:00,18.2,2.6,30.42,WSW,248,5.0,6.0,50,0.00,,,0.00,Wunderground v.1.15,2013-01-02 12:38:00,
2013-01-02 05:41:00,18.3,2.7,30.42,West,260,4.0,7.0,50,0.00,,,0.00,Wunderground v.1.15,2013-01-02 12:41:00,
2013-01-02 05:43:00,18.5,2.5,30.42,West,264,6.0,7.0,49,0.00,,,0.00,Wunderground v.1.15,2013-01-02 12:43:00,
2013-01-02 05:46:00,18.8,2.8,30.42,West,281,5.0,8.0,49,0.00,,,0.00,Wunderground v.1.15,2013-01-02 12:46:00,
2013-01-02 05:49:00,19.4,2.9,30.42,West,281,6.0,8.0,48,0.00,,,0.00,Wunderground v.1.15,2013-01-02 12:49:00,
2013-01-02 05:51:00,19.4,2.4,30.43,West,270,1.0,5.0,47,0.00,,,0.00,Wunderground v.1.15,2013-01-02 12:51:00,
2013-01-02 05:54:00,19.1,2.1,30.43,West,264,2.0,5.0,47,0.00,,,0.00,Wunderground v.1.15,2013-01-02 12:54:00,
2013-01-02 05:56:00,18.9,2.4,30.43,West,269,5.0,5.0,48,0.00,,,0.00,Wunderground v.1.15,2013-01-02 12:56:00,
2013-01-02 05:59:00,18.9,2.4,30.43,West,262,3.0,5.0,48,0.00,,,0.00,Wunderground v.1.15,2013-01-02 12:59:00,
2013-01-02 06:02:00,19.1,2.6,30.43,West,274,5.0,5.0,48,0.00,,,0.00,Wunderground v.1.15,2013-01-02 13:02:00,
2013-01-02 06:04:00,19.5,2.5,30.43,WNW,290,1.0,5.0,47,0.00,,,0.00,Wunderground v.1.15,2013-01-02 13:04:00,
2013-01-02 06:07:00,19.8,2.8,30.43,WNW,290,2.0,5.0,47,0.00,,,0.00,Wunderground v.1.15,2013-01-02 13:07:00,
2013-01-02 06:09:00,20.1,2.6,30.43,West,270,0.0,5.0,46,0.00,,,0.00,Wunderground v.1.15,2013-01-02 13:09:00,
2013-01-02 06:12:00,20.2,2.7,30.43,West,269,1.0,3.0,46,0.00,,,0.00,Wunderground v.1.15,2013-01-02 13:12:00,
2013-01-02 06:14:00,20.6,2.6,30.43,WNW,290,3.0,4.0,45,0.00,,,0.00,Wunderground v.1.15,2013-01-02 13:14:00,
2013-01-02 06:17:00,21.0,3.0,30.43,NW,326,2.0,4.0,45,0.00,,,0.00,Wunderground v.1.15,2013-01-02 13:17:00,
2013-01-02 06:19:00,21.6,3.0,30.43,West,278,4.0,6.0,44,0.00,,,0.00,Wunderground v.1.15,2013-01-02 13:19:00,
2013-01-02 06:22:00,22.2,3.1,30.43,NW,305,2.0,4.0,43,0.00,,,0.00,Wunderground v.1.15,2013-01-02 13:22:00,
2013-01-02 06:24:00,22.5,2.8,30.43,West,270,1.0,4.0,42,0.00,,,0.00,Wunderground v.1.15,2013-01-02 13:24:00,
2013-01-02 06:27:00,22.4,2.7,30.43,WNW,285,2.0,4.0,42,0.00,,,0.00,Wunderground v.1.15,2013-01-02 13:27:00,
2013-01-02 06:29:00,22.7,3.0,30.43,NE,43,2.0,6.0,42,0.00,,,0.00,Wunderground v.1.15,2013-01-02 13:29:00,
2013-01-02 06:32:00,23.0,2.8,30.43,WNW,290,1.0,8.0,41,0.00,,,0.00,Wunderground v.1.15,2013-01-02 13:32:00,
2013-01-02 06:34:00,23.3,3.0,30.43,NNW,340,0.0,8.0,41,0.00,,,0.00,Wunderground v.1.15,2013-01-02 13:34:00,
2013-01-02 06:37:00,23.4,2.6,30.43,NNE,29,2.0,8.0,40,0.00,,,0.00,Wunderground v.1.15,2013-01-02 13:37:00,
2013-01-02 06:38:00,23.4,2.6,30.43,SW,235,2.0,8.0,40,0.00,,,0.00,Wunderground v.1.15,2013-01-02 13:38:00,
2013-01-02 06:39:00,23.4,3.1,30.43,West,267,1.0,8.0,41,0.00,,,0.00,Wunderground v.1.15,2013-01-02 13:39:00,
2013-01-02 06:42:00,23.1,2.9,30.42,SSW,208,0.0,2.0,41,0.00,,,0.00,Wunderground v.1.15,2013-01-02 13:42:00,
2013-01-02 06:43:00,23.0,2.8,30.42,SW,221,0.0,2.0,41,0.00,,,0.00,Wunderground v.1.15,2013-01-02 13:43:00,
2013-01-02 06:45:00,22.8,2.6,30.43,WNW,297,1.0,7.0,41,0.00,,,0.00,Wunderground v.1.15,2013-01-02 13:45:00,
2013-01-02 06:49:00,23.2,2.9,30.42,NE,36,0.0,7.0,41,0.00,,,0.00,Wunderground v.1.15,2013-01-02 13:49:00,
2013-01-02 06:50:00,23.1,2.9,30.42,NW,307,0.0,1.0,41,0.00,,,0.00,Wunderground v.1.15,2013-01-02 13:50:00,
2013-01-02 06:54:00,22.7,2.5,30.42,SW,221,0.0,3.0,41,0.00,,,0.00,Wunderground v.1.15,2013-01-02 13:54:00,
2013-01-02 06:55:00,22.5,2.3,30.42,East,79,0.0,3.0,41,0.00,,,0.00,Wunderground v.1.15,2013-01-02 13:55:00,
2013-01-02 06:59:00,22.4,2.7,30.43,West,273,1.0,3.0,42,0.00,,,0.00,Wunderground v.1.15,2013-01-02 13:59:00,
2013-01-02 07:00:00,22.3,2.6,30.43,SW,219,2.0,2.0,42,0.00,,,0.00,Wunderground v.1.15,2013-01-02 14:00:00,
2013-01-02 07:04:00,22.0,2.4,30.43,SW,226,1.0,5.0,42,0.00,,,0.00,Wunderground v.1.15,2013-01-02 14:04:00,
2013-01-02 07:05:00,22.0,2.4,30.43,SW,228,3.0,5.0,42,0.00,,,0.00,Wunderground v.1.15,2013-01-02 14:05:00,
2013-01-02 07:09:00,22.3,2.6,30.43,WNW,283,2.0,5.0,42,0.00,,,0.00,Wunderground v.1.15,2013-01-02 14:09:00,
2013-01-02 07:10:00,22.4,2.7,30.43,West,260,3.0,3.0,42,0.00,,,0.00,Wunderground v.1.15,2013-01-02 14:10:00,
2013-01-02 07:14:00,22.5,2.3,30.43,WSW,250,5.0,7.0,41,0.00,,,0.00,Wunderground v.1.15,2013-01-02 14:14:00,
2013-01-02 07:15:00,22.3,2.1,30.43,West,281,8.0,8.0,41,0.00,,,0.00,Wunderground v.1.15,2013-01-02 14:15:00,
2013-01-02 07:19:00,21.9,2.3,30.43,West,259,6.0,8.0,42,0.00,,,0.00,Wunderground v.1.15,2013-01-02 14:19:00,
2013-01-02 07:20:00,21.5,2.4,30.43,WSW,248,5.0,6.0,43,0.00,,,0.00,Wunderground v.1.15,2013-01-02 14:20:00,
2013-01-02 07:24:00,20.2,2.2,30.43,WSW,257,5.0,8.0,45,0.00,,,0.00,Wunderground v.1.15,2013-01-02 14:24:00,
2013-01-02 07:25:00,20.0,2.0,30.43,West,273,6.0,8.0,45,0.00,,,0.00,Wunderground v.1.15,2013-01-02 14:25:00,
2013-01-02 07:26:00,19.8,2.3,30.43,WSW,253,6.0,8.0,46,0.00,,,0.00,Wunderground v.1.15,2013-01-02 14:26:00,
2013-01-02 07:29:00,20.1,2.6,30.43,WSW,240,4.0,8.0,46,0.00,,,0.00,Wunderground v.1.15,2013-01-02 14:29:00,
2013-01-02 07:30:00,20.1,2.6,30.43,WSW,250,6.0,7.0,46,0.00,,,0.00,Wunderground v.1.15,2013-01-02 14:30:00,
2013-01-02 07:31:00,20.0,2.5,30.43,WSW,245,6.0,7.0,46,0.00,,,0.00,Wunderground v.1.15,2013-01-02 14:31:00,
2013-01-02 07:34:00,19.2,2.2,30.43,WSW,252,3.0,7.0,47,0.00,,,0.00,Wunderground v.1.15,2013-01-02 14:34:00,
2013-01-02 07:35:00,19.0,2.1,30.43,SW,226,4.0,7.0,47,0.00,,,0.00,Wunderground v.1.15,2013-01-02 14:35:00,
2013-01-02 07:36:00,19.0,2.1,30.43,SW,226,3.0,7.0,47,0.00,,,0.00,Wunderground v.1.15,2013-01-02 14:36:00,
2013-01-02 07:39:00,19.8,2.8,30.43,WSW,240,2.0,7.0,47,0.00,,,0.00,Wunderground v.1.15,2013-01-02 14:39:00,
2013-01-02 07:40:00,19.8,2.3,30.43,WSW,248,3.0,4.0,46,0.00,,,0.00,Wunderground v.1.15,2013-01-02 14:40:00,
2013-01-02 07:41:00,19.9,2.4,30.43,WSW,250,4.0,4.0,46,0.00,,,0.00,Wunderground v.1.15,2013-01-02 14:41:00,
2013-01-02 07:42:00,19.9,2.4,30.44,West,260,4.0,4.0,46,0.00,,,0.00,Wunderground v.1.15,2013-01-02 14:42:00,
2013-01-02 07:44:00,19.9,2.4,30.44,West,259,7.0,7.0,46,0.00,,,0.00,Wunderground v.1.15,2013-01-02 14:44:00,
2013-01-02 07:45:00,19.6,2.1,30.43,WSW,257,6.0,7.0,46,0.00,,,0.00,Wunderground v.1.15,2013-01-02 14:45:00,
2013-01-02 07:46:00,19.5,2.0,30.43,West,260,6.0,7.0,46,0.00,,,0.00,Wunderground v.1.15,2013-01-02 14:46:00,
2013-01-02 07:47:00,19.4,2.4,30.44,WSW,250,5.0,7.0,47,0.00,,,0.00,Wunderground v.1.15,2013-01-02 14:47:00,
2013-01-02 07:49:00,19.3,2.3,30.43,WSW,257,4.0,7.0,47,0.00,,,0.00,Wunderground v.1.15,2013-01-02 14:49:00,
2013-01-02 07:51:00,19.2,2.2,30.43,SW,222,3.0,6.0,47,0.00,,,0.00,Wunderground v.1.15,2013-01-02 14:51:00,
2013-01-02 07:52:00,19.0,2.5,30.43,West,264,2.0,6.0,48,0.00,,,0.00,Wunderground v.1.15,2013-01-02 14:52:00,
2013-01-02 07:54:00,18.4,2.4,30.43,WSW,250,5.0,6.0,49,0.00,,,0.00,Wunderground v.1.15,2013-01-02 14:54:00,
2013-01-02 07:56:00,17.9,1.9,30.43,WSW,238,3.0,6.0,49,0.00,,,0.00,Wunderground v.1.15,2013-01-02 14:56:00,
2013-01-02 07:57:00,17.6,2.1,30.44,West,259,7.0,7.0,50,0.00,,,0.00,Wunderground v.1.15,2013-01-02 14:57:00,
2013-01-02 08:00:00,17.8,2.7,30.43,WSW,242,4.0,4.0,51,0.00,,,0.00,Wunderground v.1.15,2013-01-02 15:00:00,
2013-01-02 08:01:00,18.3,3.2,30.43,WSW,240,4.0,5.0,51,0.00,,,0.00,Wunderground v.1.15,2013-01-02 15:01:00,
2013-01-02 08:02:00,18.3,2.7,30.43,SSW,197,5.0,5.0,50,0.00,,,0.00,Wunderground v.1.15,2013-01-02 15:02:00,
2013-01-02 08:05:00,18.5,3.4,30.44,WSW,238,3.0,6.0,51,0.00,,,0.00,Wunderground v.1.15,2013-01-02 15:05:00,
2013-01-02 08:06:00,18.3,2.7,30.44,SW,225,4.0,6.0,50,0.00,,,0.00,Wunderground v.1.15,2013-01-02 15:06:00,
2013-01-02 08:07:00,18.0,2.9,30.44,South,179,4.0,6.0,51,0.00,,,0.00,Wunderground v.1.15,2013-01-02 15:07:00,
2013-01-02 08:10:00,18.1,3.4,30.44,SSW,210,3.0,4.0,52,0.00,,,0.00,Wunderground v.1.15,2013-01-02 15:10:00,
2013-01-02 08:11:00,18.4,3.7,30.43,SSW,212,3.0,4.0,52,0.00,,,0.00,Wunderground v.1.15,2013-01-02 15:11:00,
2013-01-02 08:12:00,18.6,3.4,30.43,WSW,247,4.0,4.0,51,0.00,,,0.00,Wunderground v.1.15,2013-01-02 15:12:00,
2013-01-02 08:15:00,18.8,3.6,30.43,WSW,257,8.0,8.0,51,0.00,,,0.00,Wunderground v.1.15,2013-01-02 15:15:00,
2013-01-02 08:16:00,18.7,3.5,30.43,WSW,250,5.0,8.0,51,0.00,,,0.00,Wunderground v.1.15,2013-01-02 15:16:00,
2013-01-02 08:18:00,18.9,3.7,30.44,SW,229,4.0,8.0,51,0.00,,,0.00,Wunderground v.1.15,2013-01-02 15:18:00,
2013-01-02 08:20:00,19.5,4.3,30.44,WSW,245,3.0,5.0,51,0.00,,,0.00,Wunderground v.1.15,2013-01-02 15:20:00,
2013-01-02 08:22:00,19.8,4.6,30.44,WSW,250,5.0,5.0,51,0.00,,,0.00,Wunderground v.1.15,2013-01-02 15:22:00,
2013-01-02 08:23:00,20.0,4.7,30.44,WSW,257,5.0,6.0,51,0.00,,,0.00,Wunderground v.1.15,2013-01-02 15:23:00,
2013-01-02 08:25:00,20.2,4.5,30.43,West,259,4.0,7.0,50,0.00,,,0.00,Wunderground v.1.15,2013-01-02 15:25:00,
2013-01-02 08:27:00,20.4,4.7,30.43,South,185,2.0,7.0,50,0.00,,,0.00,Wunderground v.1.15,2013-01-02 15:27:00,
2013-01-02 08:28:00,20.6,4.9,30.43,SSW,212,2.0,7.0,50,0.00,,,0.00,Wunderground v.1.15,2013-01-02 15:28:00,
2013-01-02 08:30:00,20.9,4.7,30.43,WSW,248,3.0,4.0,49,0.00,,,0.00,Wunderground v.1.15,2013-01-02 15:30:00,
2013-01-02 08:32:00,21.1,4.9,30.43,WSW,255,3.0,4.0,49,0.00,,,0.00,Wunderground v.1.15,2013-01-02 15:32:00,
2013-01-02 08:33:00,21.3,5.1,30.43,WSW,255,4.0,4.0,49,0.00,,,0.00,Wunderground v.1.15,2013-01-02 15:33:00,
2013-01-02 08:35:00,21.5,4.8,30.43,WSW,257,4.0,4.0,48,0.00,,,0.00,Wunderground v.1.15,2013-01-02 15:35:00,
2013-01-02 08:37:00,21.7,5.0,30.43,WSW,250,3.0,4.0,48,0.00,,,0.00,Wunderground v.1.15,2013-01-02 15:37:00,
2013-01-02 08:38:00,21.9,5.2,30.43,WSW,257,4.0,4.0,48,0.00,,,0.00,Wunderground v.1.15,2013-01-02 15:38:00,
2013-01-02 08:40:00,22.3,5.1,30.43,WSW,248,3.0,4.0,47,0.00,,,0.00,Wunderground v.1.15,2013-01-02 15:40:00,
2013-01-02 08:42:00,22.7,5.5,30.43,SSW,198,1.0,4.0,47,0.00,,,0.00,Wunderground v.1.15,2013-01-02 15:42:00,
2013-01-02 08:43:00,22.8,5.6,30.43,South,176,3.0,4.0,47,0.00,,,0.00,Wunderground v.1.15,2013-01-02 15:43:00,
2013-01-02 08:45:00,23.3,6.0,30.43,SW,219,2.0,4.0,47,0.00,,,0.00,Wunderground v.1.15,2013-01-02 15:45:00,
2013-01-02 08:47:00,23.6,6.3,30.43,WSW,240,4.0,4.0,47,0.00,,,0.00,Wunderground v.1.15,2013-01-02 15:47:00,
2013-01-02 08:48:00,23.9,5.1,30.43,WSW,254,3.0,4.0,44,0.00,,,0.00,Wunderground v.1.15,2013-01-02 15:48:00,
2013-01-02 08:50:00,24.7,4.3,30.43,WSW,255,4.0,4.0,41,0.00,,,0.00,Wunderground v.1.15,2013-01-02 15:50:00,
2013-01-02 08:52:00,25.2,3.7,30.43,WSW,245,1.0,4.0,39,0.00,,,0.00,Wunderground v.1.15,2013-01-02 15:52:00,
2013-01-02 08:53:00,25.3,3.8,30.43,WSW,253,2.0,4.0,39,0.00,,,0.00,Wunderground v.1.15,2013-01-02 15:53:00,
2013-01-02 08:54:00,25.3,4.3,30.43,WSW,257,3.0,4.0,40,0.00,,,0.00,Wunderground v.1.15,2013-01-02 15:54:00,
2013-01-02 08:56:00,25.5,3.4,30.43,WSW,243,1.0,4.0,38,0.00,,,0.00,Wunderground v.1.15,2013-01-02 15:56:00,
2013-01-02 08:57:00,25.8,3.6,30.43,WSW,243,1.0,4.0,38,0.00,,,0.00,Wunderground v.1.15,2013-01-02 15:57:00,
2013-01-02 08:58:00,26.0,3.2,30.43,WSW,243,1.0,4.0,37,0.00,,,0.00,Wunderground v.1.15,2013-01-02 15:58:00,
2013-01-02 08:59:00,26.0,3.2,30.43,WSW,243,1.0,4.0,37,0.00,,,0.00,Wunderground v.1.15,2013-01-02 15:59:00,
2013-01-02 09:01:00,26.5,3.7,30.43,WSW,243,0.0,2.0,37,0.00,,,0.00,Wunderground v.1.15,2013-01-02 16:01:00,
2013-01-02 09:02:00,26.8,5.7,30.43,East,82,3.0,3.0,40,0.00,,,0.00,Wunderground v.1.15,2013-01-02 16:02:00,
2013-01-02 09:04:00,26.8,6.2,30.43,East,84,3.0,3.0,41,0.00,,,0.00,Wunderground v.1.15,2013-01-02 16:04:00,
2013-01-02 09:06:00,26.6,6.0,30.43,East,98,2.0,3.0,41,0.00,,,0.00,Wunderground v.1.15,2013-01-02 16:06:00,
2013-01-02 09:08:00,26.4,5.8,30.43,East,96,1.0,3.0,41,0.00,,,0.00,Wunderground v.1.15,2013-01-02 16:08:00,
2013-01-02 09:09:00,26.3,6.3,30.43,East,98,1.0,3.0,42,0.00,,,0.00,Wunderground v.1.15,2013-01-02 16:09:00,
2013-01-02 09:11:00,26.1,6.1,30.43,East,98,0.0,2.0,42,0.00,,,0.00,Wunderground v.1.15,2013-01-02 16:11:00,
2013-01-02 09:13:00,26.0,6.0,30.43,SW,219,0.0,2.0,42,0.00,,,0.00,Wunderground v.1.15,2013-01-02 16:13:00,
2013-01-02 09:14:00,26.1,6.1,30.43,SW,219,1.0,2.0,42,0.00,,,0.00,Wunderground v.1.15,2013-01-02 16:14:00,
2013-01-02 09:16:00,26.2,6.2,30.43,East,98,0.0,2.0,42,0.00,,,0.00,Wunderground v.1.15,2013-01-02 16:16:00,
2013-01-02 09:18:00,26.5,5.9,30.43,ESE,120,1.0,4.0,41,0.00,,,0.00,Wunderground v.1.15,2013-01-02 16:18:00,
2013-01-02 09:19:00,26.6,5.5,30.43,ESE,120,1.0,4.0,40,0.00,,,0.00,Wunderground v.1.15,2013-01-02 16:19:00,
2013-01-02 09:21:00,27.0,5.3,30.43,SSE,153,0.0,2.0,39,0.00,,,0.00,Wunderground v.1.15,2013-01-02 16:21:00,
2013-01-02 09:23:00,27.4,5.1,30.43,SSE,162,0.0,2.0,38,0.00,,,0.00,Wunderground v.1.15,2013-01-02 16:23:00,
2013-01-02 09:24:00,27.6,5.3,30.43,SE,124,1.0,2.0,38,0.00,,,0.00,Wunderground v.1.15,2013-01-02 16:24:00,
2013-01-02 09:27:00,28.2,5.2,30.43,ESE,114,0.0,2.0,37,0.00,,,0.00,Wunderground v.1.15,2013-01-02 16:27:00,
2013-01-02 09:28:00,28.5,5.5,30.43,SE,136,0.0,2.0,37,0.00,,,0.00,Wunderground v.1.15,2013-01-02 16:28:00,
2013-01-02 09:29:00,28.7,5.1,30.43,West,259,1.0,2.0,36,0.00,,,0.00,Wunderground v.1.15,2013-01-02 16:29:00,
2013-01-02 09:32:00,29.0,5.3,30.43,ESE,110,1.0,2.0,36,0.00,,,0.00,Wunderground v.1.15,2013-01-02 16:32:00,
2013-01-02 09:33:00,29.1,6.0,30.43,SSE,155,3.0,3.0,37,0.00,,,0.00,Wunderground v.1.15,2013-01-02 16:33:00,
2013-01-02 09:34:00,29.2,5.5,30.43,ESE,113,1.0,3.0,36,0.00,,,0.00,Wunderground v.1.15,2013-01-02 16:34:00,
2013-01-02 09:37:00,29.3,5.0,30.43,South,181,2.0,3.0,35,0.00,,,0.00,Wunderground v.1.15,2013-01-02 16:37:00,
2013-01-02 09:38:00,29.3,5.0,30.43,South,181,2.0,3.0,35,0.00,,,0.00,Wunderground v.1.15,2013-01-02 16:38:00,
2013-01-02 09:39:00,29.4,5.1,30.43,ESE,109,0.0,3.0,35,0.00,,,0.00,Wunderground v.1.15,2013-01-02 16:39:00,
2013-01-02 09:43:00,30.0,5.6,30.43,South,176,2.0,4.0,35,0.00,,,0.00,Wunderground v.1.15,2013-01-02 16:43:00,
2013-01-02 09:45:00,30.1,5.7,30.42,SSW,210,4.0,4.0,35,0.00,,,0.00,Wunderground v.1.15,2013-01-02 16:45:00,
2013-01-02 09:48:00,30.3,5.2,30.42,SSW,193,4.0,4.0,34,0.00,,,0.00,Wunderground v.1.15,2013-01-02 16:48:00,
2013-01-02 09:50:00,30.4,4.7,30.42,SSW,210,2.0,3.0,33,0.00,,,0.00,Wunderground v.1.15,2013-01-02 16:50:00,
2013-01-02 09:53:00,30.6,4.9,30.42,East,101,1.0,4.0,33,0.00,,,0.00,Wunderground v.1.15,2013-01-02 16:53:00,
2013-01-02 09:55:00,30.6,5.5,30.42,SSE,148,2.0,4.0,34,0.00,,,0.00,Wunderground v.1.15,2013-01-02 16:55:00,
2013-01-02 09:58:00,30.7,4.9,30.42,South,188,0.0,4.0,33,0.00,,,0.00,Wunderground v.1.15,2013-01-02 16:58:00,
2013-01-02 09:59:00,30.8,5.0,30.42,South,188,0.0,4.0,33,0.00,,,0.00,Wunderground v.1.15,2013-01-02 16:59:00,
2013-01-02 10:00:00,30.9,5.1,30.42,South,188,0.0,2.0,33,0.00,,,0.00,Wunderground v.1.15,2013-01-02 17:00:00,
2013-01-02 10:03:00,31.3,4.8,30.42,ESE,121,1.0,2.0,32,0.00,,,0.00,Wunderground v.1.15,2013-01-02 17:03:00,
2013-01-02 10:04:00,31.3,4.1,30.42,ESE,111,1.0,2.0,31,0.00,,,0.00,Wunderground v.1.15,2013-01-02 17:04:00,
2013-01-02 10:05:00,31.3,4.1,30.42,ESE,106,1.0,2.0,31,0.00,,,0.00,Wunderground v.1.15,2013-01-02 17:05:00,
2013-01-02 10:09:00,31.4,4.2,30.43,East,82,1.0,3.0,31,0.00,,,0.00,Wunderground v.1.15,2013-01-02 17:09:00,
2013-01-02 10:10:00,31.4,4.9,30.42,East,81,4.0,4.0,32,0.00,,,0.00,Wunderground v.1.15,2013-01-02 17:10:00,
2013-01-02 10:14:00,31.2,6.7,30.43,East,99,9.0,9.0,35,0.00,,,0.00,Wunderground v.1.15,2013-01-02 17:14:00,
2013-01-02 10:15:00,30.9,6.4,30.42,East,86,6.0,9.0,35,0.00,,,0.00,Wunderground v.1.15,2013-01-02 17:15:00,
2013-01-02 10:16:00,30.8,6.9,30.42,East,101,5.0,9.0,36,0.00,,,0.00,Wunderground v.1.15,2013-01-02 17:16:00,
2013-01-02 10:19:00,30.1,5.7,30.43,East,93,3.0,9.0,35,0.00,,,0.00,Wunderground v.1.15,2013-01-02 17:19:00,
2013-01-02 10:20:00,30.0,6.8,30.42,East,90,4.0,6.0,37,0.00,,,0.00,Wunderground v.1.15,2013-01-02 17:20:00,
2013-01-02 10:21:00,30.0,6.8,30.42,East,85,6.0,7.0,37,0.00,,,0.00,Wunderground v.1.15,2013-01-02 17:21:00,
2013-01-02 10:24:00,29.7,6.0,30.43,East,89,4.0,7.0,36,0.00,,,0.00,Wunderground v.1.15,2013-01-02 17:24:00,
2013-01-02 10:25:00,29.6,6.5,30.42,ENE,78,4.0,7.0,37,0.00,,,0.00,Wunderground v.1.15,2013-01-02 17:25:00,
2013-01-02 10:26:00,29.6,6.5,30.42,ESE,114,3.0,7.0,37,0.00,,,0.00,Wunderground v.1.15,2013-01-02 17:26:00,
2013-01-02 10:29:00,29.6,6.5,30.43,ENE,68,4.0,7.0,37,0.00,,,0.00,Wunderground v.1.15,2013-01-02 17:29:00,
2013-01-02 10:30:00,29.6,6.5,30.43,East,79,3.0,5.0,37,0.00,,,0.00,Wunderground v.1.15,2013-01-02 17:30:00,
2013-01-02 10:31:00,29.6,7.1,30.43,East,84,6.0,10.0,38,0.00,,,0.00,Wunderground v.1.15,2013-01-02 17:31:00,
2013-01-02 10:35:00,29.4,6.9,30.43,East,93,5.0,11.0,38,0.00,,,0.00,Wunderground v.1.15,2013-01-02 17:35:00,
2013-01-02 10:36:00,29.3,6.8,30.43,East,93,5.0,11.0,38,0.00,,,0.00,Wunderground v.1.15,2013-01-02 17:36:00,
2013-01-02 10:37:00,29.2,6.7,30.43,ENE,64,6.0,11.0,38,0.00,,,0.00,Wunderground v.1.15,2013-01-02 17:37:00,
2013-01-02 10:40:00,29.0,7.7,30.43,SE,124,2.0,6.0,40,0.00,,,0.00,Wunderground v.1.15,2013-01-02 17:40:00,
2013-01-02 10:41:00,29.0,7.7,30.43,East,100,2.0,6.0,40,0.00,,,0.00,Wunderground v.1.15,2013-01-02 17:41:00,
2013-01-02 10:42:00,29.0,7.7,30.43,ENE,74,2.0,6.0,40,0.00,,,0.00,Wunderground v.1.15,2013-01-02 17:42:00,
2013-01-02 10:45:00,29.0,6.5,30.43,ESE,111,1.0,6.0,38,0.00,,,0.00,Wunderground v.1.15,2013-01-02 17:45:00,
2013-01-02 10:47:00,29.0,6.5,30.43,ESE,117,3.0,6.0,38,0.00,,,0.00,Wunderground v.1.15,2013-01-02 17:47:00,
2013-01-02 10:50:00,29.0,7.7,30.43,ESE,120,3.0,4.0,40,0.00,,,0.00,Wunderground v.1.15,2013-01-02 17:50:00,
2013-01-02 10:52:00,29.0,7.1,30.43,SSW,207,2.0,5.0,39,0.00,,,0.00,Wunderground v.1.15,2013-01-02 17:52:00,
2013-01-02 10:55:00,29.2,6.7,30.43,ESE,117,2.0,6.0,38,0.00,,,0.00,Wunderground v.1.15,2013-01-02 17:55:00,
2013-01-02 10:57:00,29.3,7.4,30.43,SE,136,2.0,6.0,39,0.00,,,0.00,Wunderground v.1.15,2013-01-02 17:57:00,
2013-01-02 11:00:00,29.5,7.0,30.43,SSE,150,2.0,4.0,38,0.00,,,0.00,Wunderground v.1.15,2013-01-02 18:00:00,
2013-01-02 11:02:00,29.6,7.6,30.43,South,190,0.0,4.0,39,0.00,,,0.00,Wunderground v.1.15,2013-01-02 18:02:00,
2013-01-02 11:05:00,30.0,7.4,30.42,SSE,148,0.0,4.0,38,0.00,,,0.00,Wunderground v.1.15,2013-01-02 18:05:00,
2013-01-02 11:06:00,30.1,7.5,30.42,SW,231,2.0,4.0,38,0.00,,,0.00,Wunderground v.1.15,2013-01-02 18:06:00,
2013-01-02 11:08:00,30.3,8.3,30.42,ESE,120,2.0,4.0,39,0.00,,,0.00,Wunderground v.1.15,2013-01-02 18:08:00,
2013-01-02 11:10:00,30.2,7.6,30.42,SE,131,1.0,4.0,38,0.00,,,0.00,Wunderground v.1.15,2013-01-02 18:10:00,
2013-01-02 11:11:00,30.1,7.5,30.42,East,86,5.0,5.0,38,0.00,,,0.00,Wunderground v.1.15,2013-01-02 18:11:00,
2013-01-02 11:13:00,29.9,7.9,30.42,ESE,117,2.0,5.0,39,0.00,,,0.00,Wunderground v.1.15,2013-01-02 18:13:00,
2013-01-02 11:15:00,29.9,7.9,30.42,ESE,102,3.0,5.0,39,0.00,,,0.00,Wunderground v.1.15,2013-01-02 18:15:00,
2013-01-02 11:16:00,29.9,7.9,30.42,ESE,120,4.0,5.0,39,0.00,,,0.00,Wunderground v.1.15,2013-01-02 18:16:00,
2013-01-02 11:18:00,29.9,8.5,30.42,ENE,71,2.0,5.0,40,0.00,,,0.00,Wunderground v.1.15,2013-01-02 18:18:00,
2013-01-02 11:20:00,29.8,8.4,30.42,ENE,71,2.0,2.0,40,0.00,,,0.00,Wunderground v.1.15,2013-01-02 18:20:00,
2013-01-02 11:21:00,29.8,7.8,30.42,East,79,1.0,4.0,39,0.00,,,0.00,Wunderground v.1.15,2013-01-02 18:21:00,
2013-01-02 11:23:00,29.7,8.3,30.42,East,95,0.0,4.0,40,0.00,,,0.00,Wunderground v.1.15,2013-01-02 18:23:00,
2013-01-02 11:24:00,29.7,8.3,30.42,ENE,67,2.0,4.0,40,0.00,,,0.00,Wunderground v.1.15,2013-01-02 18:24:00,
2013-01-02 11:25:00,29.7,8.3,30.42,East,101,4.0,4.0,40,0.00,,,0.00,Wunderground v.1.15,2013-01-02 18:25:00,
2013-01-02 11:26:00,29.7,8.3,30.42,NE,51,2.0,4.0,40,0.00,,,0.00,Wunderground v.1.15,2013-01-02 18:26:00,
2013-01-02 11:29:00,29.7,8.8,30.42,East,86,2.0,5.0,41,0.00,,,0.00,Wunderground v.1.15,2013-01-02 18:29:00,
2013-01-02 11:31:00,29.7,8.8,30.41,East,89,3.0,3.0,41,0.00,,,0.00,Wunderground v.1.15,2013-01-02 18:31:00,
2013-01-02 11:34:00,29.6,9.3,30.41,ESE,109,3.0,7.0,42,0.00,,,0.00,Wunderground v.1.15,2013-01-02 18:34:00,
2013-01-02 11:36:00,29.5,10.2,30.41,ESE,123,3.0,7.0,44,0.00,,,0.00,Wunderground v.1.15,2013-01-02 18:36:00,
2013-01-02 11:39:00,29.4,9.6,30.41,SE,139,1.0,7.0,43,0.00,,,0.00,Wunderground v.1.15,2013-01-02 18:39:00,
2013-01-02 11:41:00,29.6,9.3,30.41,ESE,115,1.0,3.0,42,0.00,,,0.00,Wunderground v.1.15,2013-01-02 18:41:00,
2013-01-02 11:44:00,29.8,10.0,30.41,SSW,211,4.0,4.0,43,0.00,,,0.00,Wunderground v.1.15,2013-01-02 18:44:00,
2013-01-02 11:46:00,30.0,9.6,30.41,South,188,2.0,5.0,42,0.00,,,0.00,Wunderground v.1.15,2013-01-02 18:46:00,
2013-01-02 11:49:00,30.1,9.7,30.41,SSW,198,4.0,5.0,42,0.00,,,0.00,Wunderground v.1.15,2013-01-02 18:49:00,
2013-01-02 11:51:00,30.2,10.4,30.40,SE,143,3.0,5.0,43,0.00,,,0.00,Wunderground v.1.15,2013-01-02 18:51:00,
2013-01-02 11:52:00,30.2,10.4,30.40,SE,132,2.0,5.0,43,0.00,,,0.00,Wunderground v.1.15,2013-01-02 18:52:00,
2013-01-02 11:54:00,30.2,10.4,30.40,ESE,117,1.0,5.0,43,0.00,,,0.00,Wunderground v.1.15,2013-01-02 18:54:00,
2013-01-02 11:56:00,30.1,10.3,30.40,ESE,105,3.0,5.0,43,0.00,,,0.00,Wunderground v.1.15,2013-01-02 18:56:00,
2013-01-02 11:57:00,30.0,10.2,30.40,SE,131,3.0,5.0,43,0.00,,,0.00,Wunderground v.1.15,2013-01-02 18:57:00,
2013-01-02 11:59:00,30.0,10.2,30.40,ESE,110,1.0,5.0,43,0.00,,,0.00,Wunderground v.1.15,2013-01-02 18:59:00,
2013-01-02 12:00:00,30.0,10.2,30.40,ESE,109,1.0,2.0,43,0.00,,,0.00,Wunderground v.1.15,2013-01-02 19:00:00,
2013-01-02 12:01:00,30.0,10.7,30.40,East,101,1.0,2.0,44,0.00,,,0.00,Wunderground v.1.15,2013-01-02 19:01:00,
2013-01-02 12:02:00,30.1,10.3,30.40,SE,134,2.0,2.0,43,0.00,,,0.00,Wunderground v.1.15,2013-01-02 19:02:00,
2013-01-02 12:04:00,30.1,10.8,30.40,SSE,148,0.0,2.0,44,0.00,,,0.00,Wunderground v.1.15,2013-01-02 19:04:00,
2013-01-02 12:05:00,30.2,10.9,30.40,SSE,148,0.0,2.0,44,0.00,,,0.00,Wunderground v.1.15,2013-01-02 19:05:00,
2013-01-02 12:06:00,30.3,11.0,30.40,SSE,148,0.0,2.0,44,0.00,,,0.00,Wunderground v.1.15,2013-01-02 19:06:00,
2013-01-02 12:07:00,30.5,10.6,30.39,SSE,148,0.0,2.0,43,0.00,,,0.00,Wunderground v.1.15,2013-01-02 19:07:00,
2013-01-02 12:09:00,30.8,10.9,30.39,SSE,148,0.0,2.0,43,0.00,,,0.00,Wunderground v.1.15,2013-01-02 19:09:00,
2013-01-02 12:10:00,30.9,11.5,30.39,ESE,103,1.0,4.0,44,0.00,,,0.00,Wunderground v.1.15,2013-01-02 19:10:00,
2013-01-02 12:11:00,30.8,11.4,30.39,ESE,113,1.0,4.0,44,0.00,,,0.00,Wunderground v.1.15,2013-01-02 19:11:00,
2013-01-02 12:12:00,30.7,11.3,30.39,East,101,4.0,4.0,44,0.00,,,0.00,Wunderground v.1.15,2013-01-02 19:12:00,
2013-01-02 12:14:00,30.6,11.2,30.39,ESE,103,3.0,4.0,44,0.00,,,0.00,Wunderground v.1.15,2013-01-02 19:14:00,
2013-01-02 12:15:00,30.5,11.1,30.39,ESE,107,2.0,4.0,44,0.00,,,0.00,Wunderground v.1.15,2013-01-02 19:15:00,
2013-01-02 12:16:00,30.5,11.7,30.39,ESE,109,1.0,4.0,45,0.00,,,0.00,Wunderground v.1.15,2013-01-02 19:16:00,
2013-01-02 12:17:00,30.6,11.7,30.39,ESE,112,0.0,4.0,45,0.00,,,0.00,Wunderground v.1.15,2013-01-02 19:17:00,
2013-01-02 12:19:00,30.7,11.3,30.39,SSW,201,5.0,6.0,44,0.00,,,0.00,Wunderground v.1.15,2013-01-02 19:19:00,
2013-01-02 12:21:00,30.7,10.8,30.39,South,172,2.0,6.0,43,0.00,,,0.00,Wunderground v.1.15,2013-01-02 19:21:00,
2013-01-02 12:23:00,30.8,10.9,30.38,SSW,198,4.0,6.0,43,0.00,,,0.00,Wunderground v.1.15,2013-01-02 19:23:00,
2013-01-02 12:25:00,31.0,11.1,30.38,South,189,0.0,6.0,43,0.00,,,0.00,Wunderground v.1.15,2013-01-02 19:25:00,
2013-01-02 12:26:00,31.4,11.5,30.38,South,188,1.0,6.0,43,0.00,,,0.00,Wunderground v.1.15,2013-01-02 19:26:00,
2013-01-02 12:28:00,31.9,11.9,30.38,South,186,4.0,6.0,43,0.00,,,0.00,Wunderground v.1.15,2013-01-02 19:28:00,
2013-01-02 12:30:00,32.0,12.0,30.38,SSE,155,1.0,6.0,43,0.00,,,0.00,Wunderground v.1.15,2013-01-02 19:30:00,
2013-01-02 12:31:00,32.2,12.2,30.38,SW,217,4.0,6.0,43,0.00,,,0.00,Wunderground v.1.15,2013-01-02 19:31:00,
2013-01-02 12:32:00,32.2,11.6,30.38,WSW,246,4.0,4.0,42,0.00,,,0.00,Wunderground v.1.15,2013-01-02 19:32:00,
2013-01-02 12:33:00,32.3,12.3,30.38,SE,143,1.0,4.0,43,0.00,,,0.00,Wunderground v.1.15,2013-01-02 19:33:00,
2013-01-02 12:35:00,32.3,11.7,30.38,WSW,238,3.0,4.0,42,0.00,,,0.00,Wunderground v.1.15,2013-01-02 19:35:00,
2013-01-02 12:36:00,32.3,11.2,30.38,SSW,210,0.0,4.0,41,0.00,,,0.00,Wunderground v.1.15,2013-01-02 19:36:00,
2013-01-02 12:37:00,32.3,10.6,30.38,SSW,210,0.0,4.0,40,0.00,,,0.00,Wunderground v.1.15,2013-01-02 19:37:00,
2013-01-02 12:38:00,32.5,11.9,30.38,SSE,148,1.0,4.0,42,0.00,,,0.00,Wunderground v.1.15,2013-01-02 19:38:00,
2013-01-02 12:40:00,32.7,11.6,30.38,SE,127,2.0,3.0,41,0.00,,,0.00,Wunderground v.1.15,2013-01-02 19:40:00,
2013-01-02 12:41:00,32.7,12.1,30.38,SSE,166,1.0,3.0,42,0.00,,,0.00,Wunderground v.1.15,2013-01-02 19:41:00,
2013-01-02 12:42:00,32.7,12.1,30.37,SE,136,3.0,4.0,42,0.00,,,0.00,Wunderground v.1.15,2013-01-02 19:42:00,
2013-01-02 12:43:00,32.7,12.1,30.38,SSE,148,2.0,4.0,42,0.00,,,0.00,Wunderground v.1.15,2013-01-02 19:43:00,
2013-01-02 12:45:00,32.7,11.0,30.37,SSE,163,2.0,4.0,40,0.00,,,0.00,Wunderground v.1.15,2013-01-02 19:45:00,
2013-01-02 12:46:00,32.7,11.6,30.37,SSE,158,3.0,4.0,41,0.00,,,0.00,Wunderground v.1.15,2013-01-02 19:46:00,
2013-01-02 12:47:00,32.8,11.6,30.37,South,189,1.0,4.0,41,0.00,,,0.00,Wunderground v.1.15,2013-01-02 19:47:00,
2013-01-02 12:48:00,32.9,11.7,30.37,SSE,168,0.0,4.0,41,0.00,,,0.00,Wunderground v.1.15,2013-01-02 19:48:00,
2013-01-02 12:50:00,33.0,11.8,30.37,ESE,110,1.0,2.0,41,0.00,,,0.00,Wunderground v.1.15,2013-01-02 19:50:00,
2013-01-02 12:51:00,32.9,10.6,30.37,East,98,1.0,3.0,39,0.00,,,0.00,Wunderground v.1.15,2013-01-02 19:51:00,
2013-01-02 12:52:00,32.8,11.1,30.37,SSW,210,0.0,3.0,40,0.00,,,0.00,Wunderground v.1.15,2013-01-02 19:52:00,
2013-01-02 12:53:00,32.8,10.5,30.37,SSW,210,0.0,3.0,39,0.00,,,0.00,Wunderground v.1.15,2013-01-02 19:53:00,
2013-01-02 12:55:00,33.0,10.7,30.37,South,177,1.0,3.0,39,0.00,,,0.00,Wunderground v.1.15,2013-01-02 19:55:00,
2013-01-02 12:57:00,32.9,10.6,30.37,ESE,106,3.0,5.0,39,0.00,,,0.00,Wunderground v.1.15,2013-01-02 19:57:00,
2013-01-02 12:58:00,32.7,10.4,30.37,SE,135,1.0,5.0,39,0.00,,,0.00,Wunderground v.1.15,2013-01-02 19:58:00,
2013-01-02 13:00:00,32.5,10.8,30.37,SW,233,1.0,2.0,40,0.00,,,0.00,Wunderground v.1.15,2013-01-02 20:00:00,
2013-01-02 13:02:00,32.6,10.3,30.37,SW,226,1.0,2.0,39,0.00,,,0.00,Wunderground v.1.15,2013-01-02 20:02:00,
2013-01-02 13:03:00,32.7,11.0,30.37,South,181,1.0,2.0,40,0.00,,,0.00,Wunderground v.1.15,2013-01-02 20:03:00,
2013-01-02 13:05:00,32.9,10.6,30.36,WSW,256,2.0,2.0,39,0.00,,,0.00,Wunderground v.1.15,2013-01-02 20:05:00,
2013-01-02 13:07:00,32.7,9.8,30.36,SSW,198,3.0,5.0,38,0.00,,,0.00,Wunderground v.1.15,2013-01-02 20:07:00,
2013-01-02 13:08:00,32.7,9.8,30.36,SW,231,3.0,5.0,38,0.00,,,0.00,Wunderground v.1.15,2013-01-02 20:08:00,
2013-01-02 13:09:00,32.5,10.3,30.36,SSE,156,3.0,5.0,39,0.00,,,0.00,Wunderground v.1.15,2013-01-02 20:09:00,
2013-01-02 13:10:00,32.5,9.7,30.36,South,171,3.0,4.0,38,0.00,,,0.00,Wunderground v.1.15,2013-01-02 20:10:00,
2013-01-02 13:13:00,32.5,10.3,30.36,SW,233,3.0,4.0,39,0.00,,,0.00,Wunderground v.1.15,2013-01-02 20:13:00,
2013-01-02 13:14:00,32.4,10.7,30.36,SSW,194,3.0,5.0,40,0.00,,,0.00,Wunderground v.1.15,2013-01-02 20:14:00,
2013-01-02 13:15:00,32.3,10.6,30.36,WSW,256,1.0,5.0,40,0.00,,,0.00,Wunderground v.1.15,2013-01-02 20:15:00,
2013-01-02 13:18:00,32.3,11.2,30.36,SW,231,1.0,5.0,41,0.00,,,0.00,Wunderground v.1.15,2013-01-02 20:18:00,
2013-01-02 13:19:00,32.3,11.2,30.36,WSW,238,3.0,5.0,41,0.00,,,0.00,Wunderground v.1.15,2013-01-02 20:19:00,
2013-01-02 13:21:00,32.2,10.5,30.36,SW,217,7.0,7.0,40,0.00,,,0.00,Wunderground v.1.15,2013-01-02 20:21:00,
2013-01-02 13:23:00,32.2,9.4,30.36,SSW,205,4.0,7.0,38,0.00,,,0.00,Wunderground v.1.15,2013-01-02 20:23:00,
2013-01-02 13:24:00,32.3,10.1,30.36,SSW,204,7.0,7.0,39,0.00,,,0.00,Wunderground v.1.15,2013-01-02 20:24:00,
2013-01-02 13:26:00,32.4,9.6,30.36,SSE,148,4.0,7.0,38,0.00,,,0.00,Wunderground v.1.15,2013-01-02 20:26:00,
2013-01-02 13:28:00,32.6,10.3,30.35,South,180,4.0,7.0,39,0.00,,,0.00,Wunderground v.1.15,2013-01-02 20:28:00,
2013-01-02 13:29:00,32.6,9.8,30.35,SW,218,4.0,7.0,38,0.00,,,0.00,Wunderground v.1.15,2013-01-02 20:29:00,
2013-01-02 13:31:00,32.7,9.8,30.35,SSW,197,5.0,7.0,38,0.00,,,0.00,Wunderground v.1.15,2013-01-02 20:31:00,
2013-01-02 13:33:00,32.7,9.3,30.35,SSE,161,3.0,6.0,37,0.00,,,0.00,Wunderground v.1.15,2013-01-02 20:33:00,
2013-01-02 13:34:00,32.7,9.3,30.35,South,183,4.0,6.0,37,0.00,,,0.00,Wunderground v.1.15,2013-01-02 20:34:00,
2013-01-02 13:36:00,32.7,8.6,30.35,SSW,203,7.0,7.0,36,0.00,,,0.00,Wunderground v.1.15,2013-01-02 20:36:00,
2013-01-02 13:38:00,32.6,9.8,30.35,South,191,5.0,8.0,38,0.00,,,0.00,Wunderground v.1.15,2013-01-02 20:38:00,
2013-01-02 13:39:00,32.5,9.1,30.35,South,180,7.0,8.0,37,0.00,,,0.00,Wunderground v.1.15,2013-01-02 20:39:00,
2013-01-02 13:41:00,32.4,10.2,30.35,SSW,193,7.0,9.0,39,0.00,,,0.00,Wunderground v.1.15,2013-01-02 20:41:00,
2013-01-02 13:44:00,32.3,8.9,30.35,SSW,193,11.0,11.0,37,0.00,,,0.00,Wunderground v.1.15,2013-01-02 20:44:00,
2013-01-02 13:46:00,32.3,9.5,30.35,SSW,192,8.0,11.0,38,0.00,,,0.00,Wunderground v.1.15,2013-01-02 20:46:00,
2013-01-02 13:49:00,32.5,9.1,30.35,South,184,10.0,11.0,37,0.00,,,0.00,Wunderground v.1.15,2013-01-02 20:49:00,
2013-01-02 13:50:00,32.5,9.1,30.35,SSW,200,8.0,11.0,37,0.00,,,0.00,Wunderground v.1.15,2013-01-02 20:50:00,
2013-01-02 13:52:00,32.5,9.7,30.35,SSW,211,8.0,11.0,38,0.00,,,0.00,Wunderground v.1.15,2013-01-02 20:52:00,
2013-01-02 13:54:00,32.5,10.3,30.35,SW,219,7.0,11.0,39,0.00,,,0.00,Wunderground v.1.15,2013-01-02 20:54:00,
2013-01-02 13:55:00,32.5,10.3,30.35,SSW,197,11.0,11.0,39,0.00,,,0.00,Wunderground v.1.15,2013-01-02 20:55:00,
2013-01-02 13:57:00,32.5,10.8,30.35,South,191,9.0,11.0,40,0.00,,,0.00,Wunderground v.1.15,2013-01-02 20:57:00,
2013-01-02 13:59:00,32.4,9.6,30.35,SSW,203,6.0,11.0,38,0.00,,,0.00,Wunderground v.1.15,2013-01-02 20:59:00,
2013-01-02 14:00:00,32.4,10.7,30.35,SSW,197,7.0,9.0,40,0.00,,,0.00,Wunderground v.1.15,2013-01-02 21:00:00,
2013-01-02 14:02:00,32.3,10.1,30.35,SSW,200,9.0,12.0,39,0.00,,,0.00,Wunderground v.1.15,2013-01-02 21:02:00,
2013-01-02 14:04:00,32.1,10.5,30.35,SSW,194,8.0,13.0,40,0.00,,,0.00,Wunderground v.1.15,2013-01-02 21:04:00,
2013-01-02 14:05:00,32.1,11.0,30.35,SW,217,10.0,13.0,41,0.00,,,0.00,Wunderground v.1.15,2013-01-02 21:05:00,
2013-01-02 14:07:00,31.9,11.4,30.35,SW,218,6.0,13.0,42,0.00,,,0.00,Wunderground v.1.15,2013-01-02 21:07:00,
2013-01-02 14:09:00,31.8,11.3,30.35,SSW,205,7.0,13.0,42,0.00,,,0.00,Wunderground v.1.15,2013-01-02 21:09:00,
2013-01-02 14:10:00,31.7,11.2,30.35,SW,228,9.0,11.0,42,0.00,,,0.00,Wunderground v.1.15,2013-01-02 21:10:00,
2013-01-02 14:12:00,31.7,11.2,30.35,SSW,193,6.0,11.0,42,0.00,,,0.00,Wunderground v.1.15,2013-01-02 21:12:00,
2013-01-02 14:15:00,31.7,12.2,30.35,South,184,6.0,11.0,44,0.00,,,0.00,Wunderground v.1.15,2013-01-02 21:15:00,
2013-01-02 14:16:00,31.7,11.7,30.35,SW,218,6.0,11.0,43,0.00,,,0.00,Wunderground v.1.15,2013-01-02 21:16:00,
2013-01-02 14:17:00,31.7,12.2,30.35,SSW,201,5.0,11.0,44,0.00,,,0.00,Wunderground v.1.15,2013-01-02 21:17:00,
2013-01-02 14:20:00,31.7,12.2,30.35,SW,214,9.0,9.0,44,0.00,,,0.00,Wunderground v.1.15,2013-01-02 21:20:00,
2013-01-02 14:21:00,31.6,11.6,30.35,SW,233,8.0,9.0,43,0.00,,,0.00,Wunderground v.1.15,2013-01-02 21:21:00,
2013-01-02 14:22:00,31.6,11.6,30.35,SSW,204,8.0,11.0,43,0.00,,,0.00,Wunderground v.1.15,2013-01-02 21:22:00,
2013-01-02 14:25:00,31.4,11.5,30.35,SSW,205,11.0,11.0,43,0.00,,,0.00,Wunderground v.1.15,2013-01-02 21:25:00,
2013-01-02 14:26:00,31.4,11.5,30.35,SW,224,11.0,11.0,43,0.00,,,0.00,Wunderground v.1.15,2013-01-02 21:26:00,
2013-01-02 14:27:00,31.3,11.4,30.35,SW,214,9.0,11.0,43,0.00,,,0.00,Wunderground v.1.15,2013-01-02 21:27:00,
2013-01-02 14:30:00,31.3,10.3,30.36,SSW,204,7.0,11.0,41,0.00,,,0.00,Wunderground v.1.15,2013-01-02 21:30:00,
2013-01-02 14:31:00,31.3,10.3,30.36,SSW,206,5.0,11.0,41,0.00,,,0.00,Wunderground v.1.15,2013-01-02 21:31:00,
2013-01-02 14:32:00,31.3,11.4,30.36,SSW,207,5.0,9.0,43,0.00,,,0.00,Wunderground v.1.15,2013-01-02 21:32:00,
2013-01-02 14:35:00,31.4,9.8,30.36,SSW,205,6.0,11.0,40,0.00,,,0.00,Wunderground v.1.15,2013-01-02 21:35:00,
2013-01-02 14:36:00,31.5,10.5,30.36,SW,235,7.0,11.0,41,0.00,,,0.00,Wunderground v.1.15,2013-01-02 21:36:00,
2013-01-02 14:37:00,31.5,10.5,30.36,SW,228,6.0,11.0,41,0.00,,,0.00,Wunderground v.1.15,2013-01-02 21:37:00,
2013-01-02 14:40:00,31.7,10.7,30.36,SSW,198,6.0,7.0,41,0.00,,,0.00,Wunderground v.1.15,2013-01-02 21:40:00,
2013-01-02 14:41:00,31.7,10.7,30.36,SSW,197,7.0,8.0,41,0.00,,,0.00,Wunderground v.1.15,2013-01-02 21:41:00,
2013-01-02 14:42:00,31.8,10.2,30.36,WSW,238,5.0,8.0,40,0.00,,,0.00,Wunderground v.1.15,2013-01-02 21:42:00,
2013-01-02 14:46:00,31.9,10.3,30.36,SW,231,8.0,10.0,40,0.00,,,0.00,Wunderground v.1.15,2013-01-02 21:46:00,
2013-01-02 14:47:00,32.0,10.9,30.36,SSE,162,4.0,10.0,41,0.00,,,0.00,Wunderground v.1.15,2013-01-02 21:47:00,
2013-01-02 14:51:00,32.1,9.9,30.36,SSW,205,6.0,9.0,39,0.00,,,0.00,Wunderground v.1.15,2013-01-02 21:51:00,
2013-01-02 14:52:00,32.0,9.8,30.36,SSE,152,3.0,9.0,39,0.00,,,0.00,Wunderground v.1.15,2013-01-02 21:52:00,
2013-01-02 14:56:00,32.2,10.0,30.37,South,187,1.0,9.0,39,0.00,,,0.00,Wunderground v.1.15,2013-01-02 21:56:00,
2013-01-02 14:57:00,32.3,10.1,30.37,SSW,205,5.0,9.0,39,0.00,,,0.00,Wunderground v.1.15,2013-01-02 21:57:00,
2013-01-02 15:01:00,32.7,10.4,30.37,SW,217,5.0,6.0,39,0.00,,,0.00,Wunderground v.1.15,2013-01-02 22:01:00,
2013-01-02 15:02:00,32.6,9.8,30.37,SSW,201,4.0,7.0,38,0.00,,,0.00,Wunderground v.1.15,2013-01-02 22:02:00,
2013-01-02 15:06:00,32.7,9.8,30.37,SW,222,4.0,7.0,38,0.00,,,0.00,Wunderground v.1.15,2013-01-02 22:06:00,
2013-01-02 15:07:00,32.7,9.8,30.37,SW,231,4.0,7.0,38,0.00,,,0.00,Wunderground v.1.15,2013-01-02 22:07:00,
2013-01-02 15:11:00,33.2,10.3,30.37,SW,214,2.0,3.0,38,0.00,,,0.00,Wunderground v.1.15,2013-01-02 22:11:00,
2013-01-02 15:12:00,33.3,9.8,30.37,SSE,147,1.0,4.0,37,0.00,,,0.00,Wunderground v.1.15,2013-01-02 22:12:00,
2013-01-02 15:16:00,33.3,9.2,30.37,SSW,193,3.0,7.0,36,0.00,,,0.00,Wunderground v.1.15,2013-01-02 22:16:00,
2013-01-02 15:17:00,33.2,9.7,30.37,SSW,210,4.0,7.0,37,0.00,,,0.00,Wunderground v.1.15,2013-01-02 22:17:00,
2013-01-02 15:22:00,32.7,9.8,30.37,SW,214,3.0,5.0,38,0.00,,,0.00,Wunderground v.1.15,2013-01-02 22:22:00,
2013-01-02 15:23:00,32.5,9.7,30.37,WSW,241,5.0,5.0,38,0.00,,,0.00,Wunderground v.1.15,2013-01-02 22:23:00,
2013-01-02 15:27:00,32.1,9.9,30.37,SSW,201,3.0,6.0,39,0.00,,,0.00,Wunderground v.1.15,2013-01-02 22:27:00,
2013-01-02 15:28:00,32.1,9.9,30.37,WSW,240,2.0,6.0,39,0.00,,,0.00,Wunderground v.1.15,2013-01-02 22:28:00,
2013-01-02 15:32:00,32.1,9.3,30.38,SSE,165,4.0,6.0,38,0.00,,,0.00,Wunderground v.1.15,2013-01-02 22:32:00,
2013-01-02 15:33:00,32.1,9.3,30.38,SSW,205,3.0,6.0,38,0.00,,,0.00,Wunderground v.1.15,2013-01-02 22:33:00,
2013-01-02 15:37:00,31.8,9.0,30.38,SW,231,3.0,6.0,38,0.00,,,0.00,Wunderground v.1.15,2013-01-02 22:37:00,
2013-01-02 15:38:00,31.8,9.0,30.38,WSW,238,3.0,6.0,38,0.00,,,0.00,Wunderground v.1.15,2013-01-02 22:38:00,
2013-01-02 15:42:00,31.5,9.4,30.38,SW,219,2.0,4.0,39,0.00,,,0.00,Wunderground v.1.15,2013-01-02 22:42:00,
2013-01-02 15:43:00,31.6,9.4,30.38,SW,228,2.0,4.0,39,0.00,,,0.00,Wunderground v.1.15,2013-01-02 22:43:00,
2013-01-02 15:47:00,31.3,9.7,30.39,SW,233,3.0,4.0,40,0.00,,,0.00,Wunderground v.1.15,2013-01-02 22:47:00,
2013-01-02 15:48:00,31.3,9.7,30.39,SW,233,1.0,4.0,40,0.00,,,0.00,Wunderground v.1.15,2013-01-02 22:48:00,
2013-01-02 15:52:00,31.3,10.3,30.39,WSW,243,2.0,3.0,41,0.00,,,0.00,Wunderground v.1.15,2013-01-02 22:52:00,
2013-01-02 15:53:00,31.2,10.2,30.39,West,259,2.0,3.0,41,0.00,,,0.00,Wunderground v.1.15,2013-01-02 22:53:00,
2013-01-02 15:57:00,31.0,11.1,30.39,WSW,246,2.0,4.0,43,0.00,,,0.00,Wunderground v.1.15,2013-01-02 22:57:00,
2013-01-02 15:58:00,30.8,10.9,30.39,WSW,250,3.0,4.0,43,0.00,,,0.00,Wunderground v.1.15,2013-01-02 22:58:00,
2013-01-02 15:59:00,30.8,10.9,30.39,WSW,255,4.0,5.0,43,0.00,,,0.00,Wunderground v.1.15,2013-01-02 22:59:00,
2013-01-02 16:02:00,30.0,10.7,30.39,SW,228,2.0,4.0,44,0.00,,,0.00,Wunderground v.1.15,2013-01-02 23:02:00,
2013-01-02 16:03:00,29.8,10.5,30.39,SW,233,2.0,4.0,44,0.00,,,0.00,Wunderground v.1.15,2013-01-02 23:03:00,
2013-01-02 16:04:00,29.8,10.5,30.39,WSW,255,4.0,4.0,44,0.00,,,0.00,Wunderground v.1.15,2013-01-02 23:04:00,
2013-01-02 16:07:00,29.2,10.5,30.40,WSW,256,3.0,5.0,45,0.00,,,0.00,Wunderground v.1.15,2013-01-02 23:07:00,
2013-01-02 16:08:00,29.2,10.5,30.40,WSW,253,4.0,5.0,45,0.00,,,0.00,Wunderground v.1.15,2013-01-02 23:08:00,
2013-01-02 16:09:00,29.1,10.4,30.40,WSW,256,4.0,5.0,45,0.00,,,0.00,Wunderground v.1.15,2013-01-02 23:09:00,
2013-01-02 16:12:00,28.8,10.6,30.40,WSW,248,4.0,4.0,46,0.00,,,0.00,Wunderground v.1.15,2013-01-02 23:12:00,
2013-01-02 16:13:00,28.8,10.6,30.40,SW,233,3.0,5.0,46,0.00,,,0.00,Wunderground v.1.15,2013-01-02 23:13:00,
2013-01-02 16:14:00,28.8,10.6,30.40,SW,236,3.0,5.0,46,0.00,,,0.00,Wunderground v.1.15,2013-01-02 23:14:00,
2013-01-02 16:17:00,28.5,11.3,30.40,SW,218,3.0,5.0,48,0.00,,,0.00,Wunderground v.1.15,2013-01-02 23:17:00,
2013-01-02 16:19:00,28.4,11.2,30.40,SW,225,3.0,5.0,48,0.00,,,0.00,Wunderground v.1.15,2013-01-02 23:19:00,
2013-01-02 16:22:00,28.1,10.9,30.40,SW,229,3.0,5.0,48,0.00,,,0.00,Wunderground v.1.15,2013-01-02 23:22:00,
2013-01-02 16:24:00,28.0,11.3,30.40,WSW,238,3.0,5.0,49,0.00,,,0.00,Wunderground v.1.15,2013-01-02 23:24:00,
2013-01-02 16:25:00,27.9,11.2,30.40,SW,225,3.0,5.0,49,0.00,,,0.00,Wunderground v.1.15,2013-01-02 23:25:00,
2013-01-02 16:28:00,27.8,11.1,30.41,WSW,240,4.0,5.0,49,0.00,,,0.00,Wunderground v.1.15,2013-01-02 23:28:00,
2013-01-02 16:29:00,27.8,11.1,30.41,WSW,238,4.0,5.0,49,0.00,,,0.00,Wunderground v.1.15,2013-01-02 23:29:00,
2013-01-02 16:30:00,27.8,11.5,30.41,SW,233,3.0,5.0,50,0.00,,,0.00,Wunderground v.1.15,2013-01-02 23:30:00,
2013-01-02 16:33:00,27.8,11.1,30.41,SW,225,3.0,4.0,49,0.00,,,0.00,Wunderground v.1.15,2013-01-02 23:33:00,
2013-01-02 16:34:00,27.8,11.5,30.41,SW,218,3.0,4.0,50,0.00,,,0.00,Wunderground v.1.15,2013-01-02 23:34:00,
2013-01-02 16:35:00,27.7,11.5,30.41,SW,224,3.0,4.0,50,0.00,,,0.00,Wunderground v.1.15,2013-01-02 23:35:00,
2013-01-02 16:38:00,27.4,11.2,30.41,SW,214,3.0,4.0,50,0.00,,,0.00,Wunderground v.1.15,2013-01-02 23:38:00,
2013-01-02 16:39:00,27.3,11.1,30.41,SSW,212,3.0,4.0,50,0.00,,,0.00,Wunderground v.1.15,2013-01-02 23:39:00,
2013-01-02 16:40:00,27.2,11.4,30.41,SW,219,3.0,4.0,51,0.00,,,0.00,Wunderground v.1.15,2013-01-02 23:40:00,
2013-01-02 16:43:00,27.0,11.7,30.41,WSW,238,5.0,6.0,52,0.00,,,0.00,Wunderground v.1.15,2013-01-02 23:43:00,
2013-01-02 16:44:00,27.0,11.7,30.41,WSW,240,5.0,6.0,52,0.00,,,0.00,Wunderground v.1.15,2013-01-02 23:44:00,
2013-01-02 16:45:00,27.0,11.7,30.41,SW,233,5.0,6.0,52,0.00,,,0.00,Wunderground v.1.15,2013-01-02 23:45:00,
2013-01-02 16:49:00,27.1,12.2,30.41,WSW,240,3.0,6.0,53,0.00,,,0.00,Wunderground v.1.15,2013-01-02 23:49:00,
2013-01-02 16:50:00,27.1,12.2,30.41,WSW,247,3.0,4.0,53,0.00,,,0.00,Wunderground v.1.15,2013-01-02 23:50:00,
2013-01-02 16:54:00,26.8,11.5,30.41,SSE,161,3.0,4.0,52,0.00,,,0.00,Wunderground v.1.15,2013-01-02 23:54:00,
2013-01-02 16:55:00,26.3,11.0,30.41,SSW,204,2.0,4.0,52,0.00,,,0.00,Wunderground v.1.15,2013-01-02 23:55:00,
2013-01-02 16:59:00,25.8,11.0,30.41,SW,226,2.0,4.0,53,0.00,,,0.00,Wunderground v.1.15,2013-01-02 23:59:00,
2013-01-02 17:00:00,25.7,10.9,30.41,WSW,252,3.0,3.0,53,0.00,,,0.00,Wunderground v.1.15,2013-01-03 00:00:00,
2013-01-02 17:01:00,25.7,10.9,30.41,WSW,250,2.0,3.0,53,0.00,,,0.00,Wunderground v.1.15,2013-01-03 00:01:00,
2013-01-02 17:04:00,25.4,11.0,30.42,WSW,256,6.0,6.0,54,0.00,,,0.00,Wunderground v.1.15,2013-01-03 00:04:00,
2013-01-02 17:05:00,25.3,11.0,30.42,SW,235,6.0,7.0,54,0.00,,,0.00,Wunderground v.1.15,2013-01-03 00:05:00,
2013-01-02 17:06:00,25.2,10.9,30.42,WSW,256,6.0,7.0,54,0.00,,,0.00,Wunderground v.1.15,2013-01-03 00:06:00,
2013-01-02 17:09:00,25.1,10.8,30.42,WSW,258,2.0,7.0,54,0.00,,,0.00,Wunderground v.1.15,2013-01-03 00:09:00,
2013-01-02 17:10:00,25.0,10.7,30.42,West,270,2.0,4.0,54,0.00,,,0.00,Wunderground v.1.15,2013-01-03 00:10:00,
2013-01-02 17:11:00,24.8,10.5,30.42,West,270,2.0,4.0,54,0.00,,,0.00,Wunderground v.1.15,2013-01-03 00:11:00,
2013-01-02 17:15:00,24.3,10.4,30.42,West,260,3.0,4.0,55,0.00,,,0.00,Wunderground v.1.15,2013-01-03 00:15:00,
2013-01-02 17:16:00,24.2,10.3,30.42,WSW,253,2.0,4.0,55,0.00,,,0.00,Wunderground v.1.15,2013-01-03 00:16:00,
2013-01-02 17:20:00,23.6,10.2,30.42,WSW,253,2.0,3.0,56,0.00,,,0.00,Wunderground v.1.15,2013-01-03 00:20:00,
2013-01-02 17:21:00,23.5,10.1,30.42,West,264,2.0,3.0,56,0.00,,,0.00,Wunderground v.1.15,2013-01-03 00:21:00,
2013-01-02 17:22:00,23.4,10.0,30.42,West,259,3.0,4.0,56,0.00,,,0.00,Wunderground v.1.15,2013-01-03 00:22:00,
2013-01-02 17:25:00,22.9,9.5,30.42,WSW,256,0.0,4.0,56,0.00,,,0.00,Wunderground v.1.15,2013-01-03 00:25:00,
2013-01-02 17:26:00,22.7,9.3,30.42,SSW,203,1.0,4.0,56,0.00,,,0.00,Wunderground v.1.15,2013-01-03 00:26:00,
2013-01-02 17:27:00,22.5,9.1,30.42,SSW,207,0.0,4.0,56,0.00,,,0.00,Wunderground v.1.15,2013-01-03 00:27:00,
2013-01-02 17:30:00,21.9,9.4,30.42,WSW,257,1.0,2.0,58,0.00,,,0.00,Wunderground v.1.15,2013-01-03 00:30:00,
2013-01-02 17:31:00,21.8,9.7,30.42,SW,235,3.0,3.0,59,0.00,,,0.00,Wunderground v.1.15,2013-01-03 00:31:00,
2013-01-02 17:32:00,22.1,10.3,30.42,WSW,238,4.0,4.0,60,0.00,,,0.00,Wunderground v.1.15,2013-01-03 00:32:00,
2013-01-02 17:36:00,23.6,12.1,30.42,WSW,247,7.0,7.0,61,0.00,,,0.00,Wunderground v.1.15,2013-01-03 00:36:00,
2013-01-02 17:37:00,23.9,12.0,30.42,WSW,240,6.0,7.0,60,0.00,,,0.00,Wunderground v.1.15,2013-01-03 00:37:00,
2013-01-02 17:41:00,24.8,12.1,30.42,WSW,240,4.0,7.0,58,0.00,,,0.00,Wunderground v.1.15,2013-01-03 00:41:00,
2013-01-02 17:42:00,25.0,11.9,30.42,SW,235,4.0,7.0,57,0.00,,,0.00,Wunderground v.1.15,2013-01-03 00:42:00,
2013-01-02 17:46:00,25.3,12.2,30.42,SW,233,3.0,7.0,57,0.00,,,0.00,Wunderground v.1.15,2013-01-03 00:46:00,
2013-01-02 17:47:00,25.3,11.8,30.42,WSW,238,2.0,7.0,56,0.00,,,0.00,Wunderground v.1.15,2013-01-03 00:47:00,
2013-01-02 17:52:00,24.4,10.9,30.43,WSW,253,3.0,4.0,56,0.00,,,0.00,Wunderground v.1.15,2013-01-03 00:52:00,
2013-01-02 17:53:00,24.2,10.7,30.43,WSW,245,4.0,4.0,56,0.00,,,0.00,Wunderground v.1.15,2013-01-03 00:53:00,
2013-01-02 17:57:00,23.5,10.5,30.43,WSW,253,3.0,5.0,57,0.00,,,0.00,Wunderground v.1.15,2013-01-03 00:57:00,
2013-01-02 17:58:00,23.3,10.3,30.43,WSW,238,2.0,5.0,57,0.00,,,0.00,Wunderground v.1.15,2013-01-03 00:58:00,
2013-01-02 18:02:00,23.0,11.2,30.43,WSW,240,4.0,4.0,60,0.00,,,0.00,Wunderground v.1.15,2013-01-03 01:02:00,
2013-01-02 18:03:00,23.2,11.7,30.43,WSW,246,3.0,4.0,61,0.00,,,0.00,Wunderground v.1.15,2013-01-03 01:03:00,
2013-01-02 18:07:00,23.4,11.5,30.43,West,260,2.0,4.0,60,0.00,,,0.00,Wunderground v.1.15,2013-01-03 01:07:00,
2013-01-02 18:08:00,23.4,11.5,30.43,West,260,1.0,4.0,60,0.00,,,0.00,Wunderground v.1.15,2013-01-03 01:08:00,
2013-01-02 18:12:00,22.5,10.7,30.44,SW,224,1.0,3.0,60,0.00,,,0.00,Wunderground v.1.15,2013-01-03 01:12:00,
2013-01-02 18:13:00,22.5,10.7,30.44,West,259,3.0,3.0,60,0.00,,,0.00,Wunderground v.1.15,2013-01-03 01:13:00,
2013-01-02 18:18:00,21.9,10.9,30.44,WSW,252,3.0,4.0,62,0.00,,,0.00,Wunderground v.1.15,2013-01-03 01:18:00,
2013-01-02 18:19:00,21.9,10.9,30.44,WSW,250,3.0,4.0,62,0.00,,,0.00,Wunderground v.1.15,2013-01-03 01:19:00,
2013-01-02 18:23:00,21.8,10.4,30.44,WSW,238,3.0,4.0,61,0.00,,,0.00,Wunderground v.1.15,2013-01-03 01:23:00,
2013-01-02 18:24:00,21.7,9.9,30.44,WSW,249,4.0,5.0,60,0.00,,,0.00,Wunderground v.1.15,2013-01-03 01:24:00,
2013-01-02 18:28:00,21.9,10.5,30.44,WSW,252,1.0,5.0,61,0.00,,,0.00,Wunderground v.1.15,2013-01-03 01:28:00,
2013-01-02 18:29:00,21.9,10.5,30.45,West,266,1.0,5.0,61,0.00,,,0.00,Wunderground v.1.15,2013-01-03 01:29:00,
2013-01-02 18:33:00,21.9,10.9,30.45,WSW,243,1.0,3.0,62,0.00,,,0.00,Wunderground v.1.15,2013-01-03 01:33:00,
2013-01-02 18:34:00,22.1,10.7,30.44,SSW,207,4.0,5.0,61,0.00,,,0.00,Wunderground v.1.15,2013-01-03 01:34:00,
2013-01-02 18:38:00,22.3,11.2,30.45,South,184,0.0,5.0,62,0.00,,,0.00,Wunderground v.1.15,2013-01-03 01:38:00,
2013-01-02 18:39:00,22.3,11.2,30.45,SW,225,1.0,5.0,62,0.00,,,0.00,Wunderground v.1.15,2013-01-03 01:39:00,
2013-01-02 18:43:00,22.2,10.8,30.45,West,277,2.0,6.0,61,0.00,,,0.00,Wunderground v.1.15,2013-01-03 01:43:00,
2013-01-02 18:44:00,22.2,10.4,30.45,West,278,1.0,6.0,60,0.00,,,0.00,Wunderground v.1.15,2013-01-03 01:44:00,
2013-01-02 18:48:00,22.7,9.3,30.45,South,171,2.0,6.0,56,0.00,,,0.00,Wunderground v.1.15,2013-01-03 01:48:00,
2013-01-02 18:49:00,22.7,9.3,30.45,SSE,162,2.0,6.0,56,0.00,,,0.00,Wunderground v.1.15,2013-01-03 01:49:00,
2013-01-02 18:53:00,22.7,9.3,30.45,WSW,240,4.0,7.0,56,0.00,,,0.00,Wunderground v.1.15,2013-01-03 01:53:00,
2013-01-02 18:54:00,22.6,9.2,30.45,WSW,257,3.0,7.0,56,0.00,,,0.00,Wunderground v.1.15,2013-01-03 01:54:00,
2013-01-02 18:58:00,22.4,9.1,30.45,West,262,4.0,7.0,56,0.00,,,0.00,Wunderground v.1.15,2013-01-03 01:58:00,
2013-01-02 18:59:00,22.4,9.1,30.46,West,264,3.0,7.0,56,0.00,,,0.00,Wunderground v.1.15,2013-01-03 01:59:00,
2013-01-02 19:03:00,22.3,9.4,30.46,WNW,287,0.0,4.0,57,0.00,,,0.00,Wunderground v.1.15,2013-01-03 02:03:00,
2013-01-02 19:04:00,22.4,9.4,30.46,WNW,286,0.0,4.0,57,0.00,,,0.00,Wunderground v.1.15,2013-01-03 02:04:00,
2013-01-02 19:05:00,22.4,9.4,30.46,WNW,286,0.0,4.0,57,0.00,,,0.00,Wunderground v.1.15,2013-01-03 02:05:00,
2013-01-02 19:08:00,22.4,9.4,30.46,WNW,287,0.0,4.0,57,0.00,,,0.00,Wunderground v.1.15,2013-01-03 02:08:00,
2013-01-02 19:09:00,22.4,9.4,30.46,WNW,287,0.0,4.0,57,0.00,,,0.00,Wunderground v.1.15,2013-01-03 02:09:00,
2013-01-02 19:10:00,22.4,9.4,30.46,WNW,287,0.0,0.0,57,0.00,,,0.00,Wunderground v.1.15,2013-01-03 02:10:00,
2013-01-02 19:13:00,22.1,9.9,30.46,SSE,166,1.0,1.0,59,0.00,,,0.00,Wunderground v.1.15,2013-01-03 02:13:00,
2013-01-02 19:14:00,22.0,9.8,30.46,SW,226,1.0,1.0,59,0.00,,,0.00,Wunderground v.1.15,2013-01-03 02:14:00,
2013-01-02 19:15:00,21.9,9.7,30.46,SW,225,1.0,1.0,59,0.00,,,0.00,Wunderground v.1.15,2013-01-03 02:15:00,
2013-01-02 19:18:00,21.7,9.6,30.46,WSW,256,4.0,5.0,59,0.00,,,0.00,Wunderground v.1.15,2013-01-03 02:18:00,
2013-01-02 19:19:00,21.7,9.6,30.46,WSW,257,5.0,5.0,59,0.00,,,0.00,Wunderground v.1.15,2013-01-03 02:19:00,
2013-01-02 19:20:00,21.7,9.6,30.46,WSW,256,6.0,6.0,59,0.00,,,0.00,Wunderground v.1.15,2013-01-03 02:20:00,
2013-01-02 19:23:00,21.5,9.4,30.46,WSW,249,4.0,6.0,59,0.00,,,0.00,Wunderground v.1.15,2013-01-03 02:23:00,
2013-01-02 19:25:00,21.6,9.5,30.47,WSW,240,3.0,6.0,59,0.00,,,0.00,Wunderground v.1.15,2013-01-03 02:25:00,
2013-01-02 19:26:00,21.6,9.5,30.47,WSW,238,3.0,6.0,59,0.00,,,0.00,Wunderground v.1.15,2013-01-03 02:26:00,
2013-01-02 19:29:00,21.8,9.3,30.47,South,187,5.0,6.0,58,0.00,,,0.00,Wunderground v.1.15,2013-01-03 02:29:00,
2013-01-02 19:30:00,21.8,9.7,30.47,South,187,5.0,6.0,59,0.00,,,0.00,Wunderground v.1.15,2013-01-03 02:30:00,
2013-01-02 19:31:00,21.9,10.1,30.47,SSW,203,5.0,6.0,60,0.00,,,0.00,Wunderground v.1.15,2013-01-03 02:31:00,
2013-01-02 19:34:00,21.8,9.3,30.47,WSW,250,4.0,4.0,58,0.00,,,0.00,Wunderground v.1.15,2013-01-03 02:34:00,
2013-01-02 19:35:00,21.6,9.1,30.47,West,260,4.0,4.0,58,0.00,,,0.00,Wunderground v.1.15,2013-01-03 02:35:00,
2013-01-02 19:36:00,21.3,9.2,30.47,SW,235,2.0,4.0,59,0.00,,,0.00,Wunderground v.1.15,2013-01-03 02:36:00,
2013-01-02 19:39:00,20.9,9.2,30.47,SE,131,1.0,4.0,60,0.00,,,0.00,Wunderground v.1.15,2013-01-03 02:39:00,
2013-01-02 19:40:00,20.9,9.2,30.47,SSW,200,1.0,3.0,60,0.00,,,0.00,Wunderground v.1.15,2013-01-03 02:40:00,
2013-01-02 19:41:00,20.9,9.2,30.47,WSW,240,2.0,3.0,60,0.00,,,0.00,Wunderground v.1.15,2013-01-03 02:41:00,
2013-01-02 19:44:00,21.0,9.3,30.47,WSW,254,4.0,5.0,60,0.00,,,0.00,Wunderground v.1.15,2013-01-03 02:44:00,
2013-01-02 19:45:00,20.9,9.2,30.47,WSW,240,2.0,5.0,60,0.00,,,0.00,Wunderground v.1.15,2013-01-03 02:45:00,
2013-01-02 19:46:00,20.8,9.5,30.48,WSW,255,4.0,5.0,61,0.00,,,0.00,Wunderground v.1.15,2013-01-03 02:46:00,
2013-01-02 19:49:00,20.7,9.4,30.48,WSW,253,4.0,5.0,61,0.00,,,0.00,Wunderground v.1.15,2013-01-03 02:49:00,
2013-01-02 19:50:00,20.6,9.3,30.48,WSW,249,4.0,4.0,61,0.00,,,0.00,Wunderground v.1.15,2013-01-03 02:50:00,
2013-01-02 19:51:00,20.6,9.3,30.48,SSW,203,2.0,4.0,61,0.00,,,0.00,Wunderground v.1.15,2013-01-03 02:51:00,
2013-01-02 19:54:00,20.5,9.5,30.48,SW,219,3.0,4.0,62,0.00,,,0.00,Wunderground v.1.15,2013-01-03 02:54:00,
2013-01-02 19:55:00,20.6,9.6,30.48,SSW,200,4.0,4.0,62,0.00,,,0.00,Wunderground v.1.15,2013-01-03 02:55:00,
2013-01-02 19:56:00,20.7,9.7,30.48,SSW,203,3.0,4.0,62,0.00,,,0.00,Wunderground v.1.15,2013-01-03 02:56:00,
2013-01-02 19:57:00,20.8,9.5,30.48,WSW,243,3.0,4.0,61,0.00,,,0.00,Wunderground v.1.15,2013-01-03 02:57:00,
2013-01-02 19:59:00,20.8,9.5,30.48,West,260,6.0,7.0,61,0.00,,,0.00,Wunderground v.1.15,2013-01-03 02:59:00,
2013-01-02 20:00:00,20.7,9.4,30.48,WNW,286,3.0,5.0,61,0.00,,,0.00,Wunderground v.1.15,2013-01-03 03:00:00,
2013-01-02 20:01:00,20.5,9.5,30.48,NW,315,3.0,5.0,62,0.00,,,0.00,Wunderground v.1.15,2013-01-03 03:01:00,
2013-01-02 20:02:00,20.4,9.4,30.48,NNW,344,1.0,5.0,62,0.00,,,0.00,Wunderground v.1.15,2013-01-03 03:02:00,
2013-01-02 20:04:00,20.4,9.4,30.48,West,269,0.0,5.0,62,0.00,,,0.00,Wunderground v.1.15,2013-01-03 03:04:00,
2013-01-02 20:05:00,20.6,9.6,30.48,SSW,210,1.0,5.0,62,0.00,,,0.00,Wunderground v.1.15,2013-01-03 03:05:00,
2013-01-02 20:06:00,20.7,9.7,30.48,SW,233,2.0,5.0,62,0.00,,,0.00,Wunderground v.1.15,2013-01-03 03:06:00,
2013-01-02 20:07:00,20.8,9.8,30.48,West,281,2.0,5.0,62,0.00,,,0.00,Wunderground v.1.15,2013-01-03 03:07:00,
2013-01-02 20:09:00,21.0,9.6,30.48,SSW,200,2.0,5.0,61,0.00,,,0.00,Wunderground v.1.15,2013-01-03 03:09:00,
2013-01-02 20:10:00,21.0,9.6,30.48,SW,229,2.0,3.0,61,0.00,,,0.00,Wunderground v.1.15,2013-01-03 03:10:00,
2013-01-02 20:11:00,21.0,9.6,30.48,SSE,165,2.0,3.0,61,0.00,,,0.00,Wunderground v.1.15,2013-01-03 03:11:00,
2013-01-02 20:12:00,21.1,9.7,30.48,SSW,198,2.0,3.0,61,0.00,,,0.00,Wunderground v.1.15,2013-01-03 03:12:00,
2013-01-02 20:14:00,21.3,9.9,30.48,SSW,194,4.0,4.0,61,0.00,,,0.00,Wunderground v.1.15,2013-01-03 03:14:00,
2013-01-02 20:15:00,21.3,9.9,30.48,SW,225,3.0,5.0,61,0.00,,,0.00,Wunderground v.1.15,2013-01-03 03:15:00,
2013-01-02 20:16:00,21.3,9.9,30.48,SW,231,3.0,5.0,61,0.00,,,0.00,Wunderground v.1.15,2013-01-03 03:16:00,
2013-01-02 20:17:00,21.2,9.8,30.48,West,260,4.0,5.0,61,0.00,,,0.00,Wunderground v.1.15,2013-01-03 03:17:00,
2013-01-02 20:20:00,21.2,9.8,30.47,West,262,5.0,5.0,61,0.00,,,0.00,Wunderground v.1.15,2013-01-03 03:20:00,
2013-01-02 20:21:00,21.1,10.1,30.48,West,263,4.0,5.0,62,0.00,,,0.00,Wunderground v.1.15,2013-01-03 03:21:00,
2013-01-02 20:22:00,21.1,10.1,30.47,WSW,250,3.0,5.0,62,0.00,,,0.00,Wunderground v.1.15,2013-01-03 03:22:00,
2013-01-02 20:25:00,21.3,10.3,30.47,SW,226,4.0,5.0,62,0.00,,,0.00,Wunderground v.1.15,2013-01-03 03:25:00,
2013-01-02 20:26:00,21.4,10.4,30.48,SW,228,3.0,5.0,62,0.00,,,0.00,Wunderground v.1.15,2013-01-03 03:26:00,
2013-01-02 20:27:00,21.7,10.7,30.48,SW,222,3.0,5.0,62,0.00,,,0.00,Wunderground v.1.15,2013-01-03 03:27:00,
2013-01-02 20:30:00,21.9,10.5,30.48,SW,222,3.0,3.0,61,0.00,,,0.00,Wunderground v.1.15,2013-01-03 03:30:00,
2013-01-02 20:31:00,21.7,10.3,30.48,SW,233,3.0,3.0,61,0.00,,,0.00,Wunderground v.1.15,2013-01-03 03:31:00,
2013-01-02 20:32:00,21.6,10.2,30.48,WSW,253,2.0,3.0,61,0.00,,,0.00,Wunderground v.1.15,2013-01-03 03:32:00,
2013-01-02 20:34:00,21.2,10.2,30.48,SSW,204,2.0,3.0,62,0.00,,,0.00,Wunderground v.1.15,2013-01-03 03:34:00,
2013-01-02 20:36:00,21.0,10.7,30.48,South,186,4.0,4.0,64,0.00,,,0.00,Wunderground v.1.15,2013-01-03 03:36:00,
2013-01-02 20:37:00,21.0,10.7,30.48,SSE,167,4.0,4.0,64,0.00,,,0.00,Wunderground v.1.15,2013-01-03 03:37:00,
2013-01-02 20:38:00,21.0,10.7,30.48,South,187,5.0,5.0,64,0.00,,,0.00,Wunderground v.1.15,2013-01-03 03:38:00,
2013-01-02 20:39:00,21.2,11.3,30.48,SSW,198,4.0,5.0,65,0.00,,,0.00,Wunderground v.1.15,2013-01-03 03:39:00,
2013-01-02 20:42:00,21.6,11.3,30.48,WSW,245,3.0,3.0,64,0.00,,,0.00,Wunderground v.1.15,2013-01-03 03:42:00,
2013-01-02 20:43:00,21.6,11.3,30.48,SW,233,3.0,3.0,64,0.00,,,0.00,Wunderground v.1.15,2013-01-03 03:43:00,
2013-01-02 20:46:00,22.4,11.7,30.48,WSW,257,2.0,4.0,63,0.00,,,0.00,Wunderground v.1.15,2013-01-03 03:46:00,
2013-01-02 20:48:00,22.6,11.5,30.48,WSW,253,1.0,4.0,62,0.00,,,0.00,Wunderground v.1.15,2013-01-03 03:48:00,
2013-01-02 20:49:00,22.6,11.5,30.48,West,260,5.0,7.0,62,0.00,,,0.00,Wunderground v.1.15,2013-01-03 03:49:00,
2013-01-02 20:51:00,22.1,11.1,30.48,West,262,5.0,7.0,62,0.00,,,0.00,Wunderground v.1.15,2013-01-03 03:51:00,
2013-01-02 20:53:00,21.9,11.2,30.48,WSW,257,4.0,7.0,63,0.00,,,0.00,Wunderground v.1.15,2013-01-03 03:53:00,
2013-01-02 20:54:00,21.8,11.1,30.48,WSW,253,4.0,7.0,63,0.00,,,0.00,Wunderground v.1.15,2013-01-03 03:54:00,
2013-01-02 20:57:00,21.8,11.5,30.48,WSW,249,1.0,7.0,64,0.00,,,0.00,Wunderground v.1.15,2013-01-03 03:57:00,
2013-01-02 20:59:00,21.9,11.6,30.48,WSW,257,4.0,7.0,64,0.00,,,0.00,Wunderground v.1.15,2013-01-03 03:59:00,
2013-01-02 21:02:00,21.9,11.2,30.49,West,262,4.0,5.0,63,0.00,,,0.00,Wunderground v.1.15,2013-01-03 04:02:00,
2013-01-02 21:03:00,21.9,11.6,30.49,WSW,250,4.0,5.0,64,0.00,,,0.00,Wunderground v.1.15,2013-01-03 04:03:00,
2013-01-02 21:05:00,21.8,11.5,30.48,West,262,3.0,5.0,64,0.00,,,0.00,Wunderground v.1.15,2013-01-03 04:05:00,
2013-01-02 21:06:00,21.9,11.6,30.48,WNW,283,3.0,5.0,64,0.00,,,0.00,Wunderground v.1.15,2013-01-03 04:06:00,
2013-01-02 21:08:00,22.0,11.7,30.49,WNW,285,3.0,5.0,64,0.00,,,0.00,Wunderground v.1.15,2013-01-03 04:08:00,
2013-01-02 21:10:00,22.4,11.7,30.49,West,262,5.0,5.0,63,0.00,,,0.00,Wunderground v.1.15,2013-01-03 04:10:00,
2013-01-02 21:11:00,22.5,11.8,30.49,WSW,256,4.0,6.0,63,0.00,,,0.00,Wunderground v.1.15,2013-01-03 04:11:00,
2013-01-02 21:13:00,22.6,11.9,30.49,WSW,253,2.0,6.0,63,0.00,,,0.00,Wunderground v.1.15,2013-01-03 04:13:00,
2013-01-02 21:15:00,23.0,11.5,30.49,SW,236,3.0,6.0,61,0.00,,,0.00,Wunderground v.1.15,2013-01-03 04:15:00,
2013-01-02 21:16:00,23.2,11.7,30.49,WSW,248,2.0,6.0,61,0.00,,,0.00,Wunderground v.1.15,2013-01-03 04:16:00,
2013-01-02 21:18:00,23.4,11.9,30.49,WSW,245,2.0,6.0,61,0.00,,,0.00,Wunderground v.1.15,2013-01-03 04:18:00,
2013-01-02 21:20:00,23.5,11.6,30.49,SW,215,2.0,3.0,60,0.00,,,0.00,Wunderground v.1.15,2013-01-03 04:20:00,
2013-01-02 21:21:00,23.6,11.7,30.49,SSW,208,3.0,3.0,60,0.00,,,0.00,Wunderground v.1.15,2013-01-03 04:21:00,
2013-01-02 21:23:00,23.9,11.6,30.49,WSW,252,2.0,3.0,59,0.00,,,0.00,Wunderground v.1.15,2013-01-03 04:23:00,
2013-01-02 21:25:00,23.9,11.6,30.49,NW,311,3.0,3.0,59,0.00,,,0.00,Wunderground v.1.15,2013-01-03 04:25:00,
2013-01-02 21:27:00,23.8,11.9,30.50,WNW,290,1.0,3.0,60,0.00,,,0.00,Wunderground v.1.15,2013-01-03 04:27:00,
2013-01-02 21:28:00,23.6,11.7,30.50,WNW,290,0.0,3.0,60,0.00,,,0.00,Wunderground v.1.15,2013-01-03 04:28:00,
2013-01-02 21:30:00,23.4,11.5,30.49,SSW,210,1.0,2.0,60,0.00,,,0.00,Wunderground v.1.15,2013-01-03 04:30:00,
2013-01-02 21:32:00,23.4,11.5,30.49,South,184,2.0,2.0,60,0.00,,,0.00,Wunderground v.1.15,2013-01-03 04:32:00,
2013-01-02 21:33:00,23.4,11.5,30.49,South,184,1.0,2.0,60,0.00,,,0.00,Wunderground v.1.15,2013-01-03 04:33:00,
2013-01-02 21:34:00,23.4,11.5,30.49,South,184,0.0,2.0,60,0.00,,,0.00,Wunderground v.1.15,2013-01-03 04:34:00,
2013-01-02 21:35:00,23.4,11.5,30.50,South,191,1.0,2.0,60,0.00,,,0.00,Wunderground v.1.15,2013-01-03 04:35:00,
2013-01-02 21:37:00,23.4,11.5,30.50,SSW,193,0.0,2.0,60,0.00,,,0.00,Wunderground v.1.15,2013-01-03 04:37:00,
2013-01-02 21:38:00,23.4,11.5,30.50,SSW,193,0.0,2.0,60,0.00,,,0.00,Wunderground v.1.15,2013-01-03 04:38:00,
2013-01-02 21:39:00,23.4,11.5,30.50,WSW,249,1.0,2.0,60,0.00,,,0.00,Wunderground v.1.15,2013-01-03 04:39:00,
2013-01-02 21:41:00,23.3,11.4,30.50,WSW,256,2.0,2.0,60,0.00,,,0.00,Wunderground v.1.15,2013-01-03 04:41:00,
2013-01-02 21:42:00,23.2,11.4,30.50,West,278,2.0,2.0,60,0.00,,,0.00,Wunderground v.1.15,2013-01-03 04:42:00,
2013-01-02 21:43:00,23.1,11.3,30.50,West,277,1.0,2.0,60,0.00,,,0.00,Wunderground v.1.15,2013-01-03 04:43:00,
2013-01-02 21:44:00,23.1,11.3,30.50,West,277,1.0,2.0,60,0.00,,,0.00,Wunderground v.1.15,2013-01-03 04:44:00,
2013-01-02 21:46:00,22.9,11.4,30.50,WSW,238,2.0,2.0,61,0.00,,,0.00,Wunderground v.1.15,2013-01-03 04:46:00,
2013-01-02 21:47:00,22.9,11.4,30.50,WSW,249,2.0,3.0,61,0.00,,,0.00,Wunderground v.1.15,2013-01-03 04:47:00,
2013-01-02 21:48:00,22.9,11.4,30.50,WSW,255,3.0,3.0,61,0.00,,,0.00,Wunderground v.1.15,2013-01-03 04:48:00,
2013-01-02 21:49:00,22.9,11.4,30.50,West,259,3.0,3.0,61,0.00,,,0.00,Wunderground v.1.15,2013-01-03 04:49:00,
2013-01-02 21:51:00,22.9,11.4,30.50,West,259,3.0,3.0,61,0.00,,,0.00,Wunderground v.1.15,2013-01-03 04:51:00,
2013-01-02 21:52:00,22.8,11.3,30.50,WSW,245,3.0,4.0,61,0.00,,,0.00,Wunderground v.1.15,2013-01-03 04:52:00,
2013-01-02 21:54:00,22.7,11.3,30.50,WSW,253,3.0,4.0,61,0.00,,,0.00,Wunderground v.1.15,2013-01-03 04:54:00,
2013-01-02 21:56:00,22.5,11.4,30.50,WSW,238,3.0,4.0,62,0.00,,,0.00,Wunderground v.1.15,2013-01-03 04:56:00,
2013-01-02 21:57:00,22.3,11.2,30.50,SW,228,1.0,4.0,62,0.00,,,0.00,Wunderground v.1.15,2013-01-03 04:57:00,
2013-01-02 21:59:00,22.1,11.1,30.50,WSW,240,1.0,4.0,62,0.00,,,0.00,Wunderground v.1.15,2013-01-03 04:59:00,
2013-01-02 22:00:00,22.0,11.0,30.50,WSW,246,3.0,3.0,62,0.00,,,0.00,Wunderground v.1.15,2013-01-03 05:00:00,
2013-01-02 22:02:00,21.9,11.2,30.50,WSW,253,3.0,4.0,63,0.00,,,0.00,Wunderground v.1.15,2013-01-03 05:02:00,
2013-01-02 22:03:00,21.9,11.2,30.50,SW,229,3.0,4.0,63,0.00,,,0.00,Wunderground v.1.15,2013-01-03 05:03:00,
2013-01-02 22:05:00,21.6,10.9,30.50,SW,215,3.0,4.0,63,0.00,,,0.00,Wunderground v.1.15,2013-01-03 05:05:00,
2013-01-02 22:07:00,21.5,10.8,30.50,SW,225,3.0,4.0,63,0.00,,,0.00,Wunderground v.1.15,2013-01-03 05:07:00,
2013-01-02 22:08:00,21.5,10.8,30.50,SW,228,2.0,4.0,63,0.00,,,0.00,Wunderground v.1.15,2013-01-03 05:08:00,
2013-01-02 22:11:00,21.2,10.6,30.50,WSW,257,4.0,5.0,63,0.00,,,0.00,Wunderground v.1.15,2013-01-03 05:11:00,
2013-01-02 22:12:00,20.9,10.3,30.50,WSW,256,3.0,5.0,63,0.00,,,0.00,Wunderground v.1.15,2013-01-03 05:12:00,
2013-01-02 22:13:00,20.8,10.2,30.50,WSW,249,3.0,5.0,63,0.00,,,0.00,Wunderground v.1.15,2013-01-03 05:13:00,
2013-01-02 22:16:00,20.4,10.1,30.50,WSW,257,4.0,6.0,64,0.00,,,0.00,Wunderground v.1.15,2013-01-03 05:16:00,
2013-01-02 22:17:00,20.4,9.8,30.50,WSW,255,5.0,6.0,63,0.00,,,0.00,Wunderground v.1.15,2013-01-03 05:17:00,
2013-01-02 22:18:00,20.4,9.8,30.50,WSW,256,3.0,6.0,63,0.00,,,0.00,Wunderground v.1.15,2013-01-03 05:18:00,
2013-01-02 22:21:00,20.3,9.3,30.51,WSW,248,2.0,4.0,62,0.00,,,0.00,Wunderground v.1.15,2013-01-03 05:21:00,
2013-01-02 22:23:00,20.3,9.3,30.51,SSW,201,2.0,4.0,62,0.00,,,0.00,Wunderground v.1.15,2013-01-03 05:23:00,
2013-01-02 22:26:00,20.2,9.6,30.51,SW,217,3.0,4.0,63,0.00,,,0.00,Wunderground v.1.15,2013-01-03 05:26:00,
2013-01-02 22:28:00,20.0,9.4,30.51,SW,229,3.0,4.0,63,0.00,,,0.00,Wunderground v.1.15,2013-01-03 05:28:00,
2013-01-02 22:29:00,20.0,9.4,30.51,SW,228,3.0,4.0,63,0.00,,,0.00,Wunderground v.1.15,2013-01-03 05:29:00,
2013-01-02 22:31:00,19.5,8.6,30.51,SW,226,3.0,4.0,62,0.00,,,0.00,Wunderground v.1.15,2013-01-03 05:31:00,
2013-01-02 22:33:00,19.0,8.8,30.51,WSW,248,3.0,4.0,64,0.00,,,0.00,Wunderground v.1.15,2013-01-03 05:33:00,
2013-01-02 22:34:00,19.0,8.8,30.51,WSW,247,3.0,5.0,64,0.00,,,0.00,Wunderground v.1.15,2013-01-03 05:34:00,
2013-01-02 22:36:00,18.7,8.5,30.51,WSW,256,5.0,6.0,64,0.00,,,0.00,Wunderground v.1.15,2013-01-03 05:36:00,
2013-01-02 22:39:00,18.7,9.2,30.51,West,269,5.0,6.0,66,0.00,,,0.00,Wunderground v.1.15,2013-01-03 05:39:00,
2013-01-02 22:41:00,19.0,9.5,30.51,West,267,4.0,6.0,66,0.00,,,0.00,Wunderground v.1.15,2013-01-03 05:41:00,
2013-01-02 22:44:00,19.3,9.4,30.51,West,259,4.0,6.0,65,0.00,,,0.00,Wunderground v.1.15,2013-01-03 05:44:00,
2013-01-02 22:46:00,19.5,9.3,30.51,WSW,238,4.0,6.0,64,0.00,,,0.00,Wunderground v.1.15,2013-01-03 05:46:00,
2013-01-02 22:49:00,19.6,9.4,30.51,SW,224,3.0,6.0,64,0.00,,,0.00,Wunderground v.1.15,2013-01-03 05:49:00,
2013-01-02 22:50:00,19.7,9.5,30.51,WSW,238,3.0,6.0,64,0.00,,,0.00,Wunderground v.1.15,2013-01-03 05:50:00,
2013-01-02 22:52:00,19.7,9.1,30.51,WSW,245,3.0,5.0,63,0.00,,,0.00,Wunderground v.1.15,2013-01-03 05:52:00,
2013-01-02 22:54:00,19.5,8.9,30.51,SW,232,3.0,6.0,63,0.00,,,0.00,Wunderground v.1.15,2013-01-03 05:54:00,
2013-01-02 22:55:00,19.4,8.8,30.51,WSW,250,3.0,6.0,63,0.00,,,0.00,Wunderground v.1.15,2013-01-03 05:55:00,
2013-01-02 22:57:00,19.5,7.1,30.51,West,278,1.0,6.0,58,0.00,,,0.00,Wunderground v.1.15,2013-01-03 05:57:00,
2013-01-02 22:59:00,19.8,7.0,30.51,West,276,3.0,6.0,57,0.00,,,0.00,Wunderground v.1.15,2013-01-03 05:59:00,
2013-01-02 23:00:00,20.1,6.1,30.51,West,264,3.0,4.0,54,0.00,,,0.00,Wunderground v.1.15,2013-01-03 06:00:00,
2013-01-02 23:02:00,20.7,4.5,30.51,NNW,327,3.0,6.0,49,0.00,,,0.00,Wunderground v.1.15,2013-01-03 06:02:00,
2013-01-02 23:04:00,21.2,5.0,30.51,West,281,1.0,6.0,49,0.00,,,0.00,Wunderground v.1.15,2013-01-03 06:04:00,
2013-01-02 23:05:00,21.3,4.6,30.51,West,260,1.0,6.0,48,0.00,,,0.00,Wunderground v.1.15,2013-01-03 06:05:00,
2013-01-02 23:07:00,21.4,6.9,30.52,NW,304,3.0,6.0,53,0.00,,,0.00,Wunderground v.1.15,2013-01-03 06:07:00,
2013-01-02 23:09:00,21.4,4.7,30.52,ENE,77,2.0,6.0,48,0.00,,,0.00,Wunderground v.1.15,2013-01-03 06:09:00,
2013-01-02 23:10:00,21.4,4.7,30.52,East,99,3.0,3.0,48,0.00,,,0.00,Wunderground v.1.15,2013-01-03 06:10:00,
2013-01-02 23:12:00,21.6,4.9,30.52,WSW,249,3.0,3.0,48,0.00,,,0.00,Wunderground v.1.15,2013-01-03 06:12:00,
2013-01-02 23:14:00,21.6,4.9,30.52,SW,235,3.0,4.0,48,0.00,,,0.00,Wunderground v.1.15,2013-01-03 06:14:00,
2013-01-02 23:15:00,21.5,4.8,30.52,West,267,2.0,4.0,48,0.00,,,0.00,Wunderground v.1.15,2013-01-03 06:15:00,
2013-01-02 23:17:00,21.5,4.4,30.52,SSW,201,2.0,4.0,47,0.00,,,0.00,Wunderground v.1.15,2013-01-03 06:17:00,
2013-01-02 23:19:00,21.5,4.4,30.52,WSW,249,2.0,4.0,47,0.00,,,0.00,Wunderground v.1.15,2013-01-03 06:19:00,
2013-01-02 23:20:00,21.4,4.7,30.52,SSW,198,1.0,2.0,48,0.00,,,0.00,Wunderground v.1.15,2013-01-03 06:20:00,
2013-01-02 23:22:00,21.3,4.6,30.52,SSW,200,2.0,3.0,48,0.00,,,0.00,Wunderground v.1.15,2013-01-03 06:22:00,
2013-01-02 23:24:00,21.2,5.4,30.52,SSW,203,2.0,3.0,50,0.00,,,0.00,Wunderground v.1.15,2013-01-03 06:24:00,
2013-01-02 23:25:00,21.2,5.0,30.52,SSW,204,2.0,3.0,49,0.00,,,0.00,Wunderground v.1.15,2013-01-03 06:25:00,
2013-01-02 23:28:00,21.3,4.2,30.52,SW,235,2.0,3.0,47,0.00,,,0.00,Wunderground v.1.15,2013-01-03 06:28:00,
2013-01-02 23:29:00,21.5,3.4,30.52,SW,236,4.0,4.0,45,0.00,,,0.00,Wunderground v.1.15,2013-01-03 06:29:00,
2013-01-02 23:30:00,21.6,3.5,30.52,WNW,284,1.0,4.0,45,0.00,,,0.00,Wunderground v.1.15,2013-01-03 06:30:00,
2013-01-02 23:33:00,21.5,4.4,30.52,West,278,1.0,4.0,47,0.00,,,0.00,Wunderground v.1.15,2013-01-03 06:33:00,
2013-01-02 23:35:00,21.5,4.4,30.52,West,263,4.0,4.0,47,0.00,,,0.00,Wunderground v.1.15,2013-01-03 06:35:00,
2013-01-02 23:38:00,21.3,4.6,30.52,WSW,248,2.0,5.0,48,0.00,,,0.00,Wunderground v.1.15,2013-01-03 06:38:00,
2013-01-02 23:40:00,21.3,4.2,30.52,SSW,208,4.0,4.0,47,0.00,,,0.00,Wunderground v.1.15,2013-01-03 06:40:00,
2013-01-02 23:43:00,21.5,4.4,30.52,WSW,242,2.0,4.0,47,0.00,,,0.00,Wunderground v.1.15,2013-01-03 06:43:00,
2013-01-02 23:45:00,21.5,3.9,30.52,WSW,246,3.0,4.0,46,0.00,,,0.00,Wunderground v.1.15,2013-01-03 06:45:00,
2013-01-02 23:46:00,21.4,4.3,30.52,WSW,245,3.0,4.0,47,0.00,,,0.00,Wunderground v.1.15,2013-01-03 06:46:00,
2013-01-02 23:48:00,21.1,4.4,30.52,SSW,197,0.0,4.0,48,0.00,,,0.00,Wunderground v.1.15,2013-01-03 06:48:00,
2013-01-02 23:50:00,20.8,3.7,30.52,SSE,148,1.0,3.0,47,0.00,,,0.00,Wunderground v.1.15,2013-01-03 06:50:00,
2013-01-02 23:51:00,20.6,4.0,30.53,WSW,243,2.0,3.0,48,0.00,,,0.00,Wunderground v.1.15,2013-01-03 06:51:00,
2013-01-02 23:53:00,20.4,4.2,30.53,WSW,240,3.0,3.0,49,0.00,,,0.00,Wunderground v.1.15,2013-01-03 06:53:00,
2013-01-02 23:55:00,20.6,4.0,30.52,SW,229,4.0,4.0,48,0.00,,,0.00,Wunderground v.1.15,2013-01-03 06:55:00,
2013-01-02 23:56:00,20.8,3.7,30.53,WSW,253,3.0,4.0,47,0.00,,,0.00,Wunderground v.1.15,2013-01-03 06:56:00,
2013-01-02 23:58:00,20.9,3.8,30.52,WSW,257,3.0,4.0,47,0.00,,,0.00,Wunderground v.1.15,2013-01-03 06:58:00,